Time,TemperatureF,DewpointF,PressureIn,WindDirection,WindDirectionDegrees,WindSpeedMPH,WindSpeedGustMPH,Humidity,HourlyPrecipIn,Conditions,Clouds,dailyrainin,SoftwareType,DateUTC
2013-01-27 00:00:00,14.1,-3.8,30.17,NW,326,4.0,4.0,44,0.00,,---,0.00,VWS V14.00,2013-01-27 05:00:00,
2013-01-27 00:01:00,14.1,-3.8,30.17,North,359,0.0,5.0,44,0.00,,---,0.00,VWS V14.00,2013-01-27 05:01:00,
2013-01-27 00:02:00,14.1,-3.8,30.17,NNW,338,3.0,5.0,44,0.00,,---,0.00,VWS V14.00,2013-01-27 05:02:00,
2013-01-27 00:05:00,14.0,-3.4,30.17,NNW,335,2.0,5.0,45,0.00,,---,0.00,VWS V14.00,2013-01-27 05:05:00,
2013-01-27 00:06:00,14.0,-3.4,30.17,NNW,342,5.0,5.0,45,0.00,,---,0.00,VWS V14.00,2013-01-27 05:06:00,
2013-01-27 00:07:00,14.0,-3.4,30.17,North,1,4.0,5.0,45,0.00,,---,0.00,VWS V14.00,2013-01-27 05:07:00,
2013-01-27 00:10:00,14.0,-3.4,30.17,NNW,337,5.0,11.0,45,0.00,,---,0.00,VWS V14.00,2013-01-27 05:10:00,
2013-01-27 00:11:00,14.0,-3.4,30.17,NNW,337,0.0,11.0,45,0.00,,---,0.00,VWS V14.00,2013-01-27 05:11:00,
2013-01-27 00:12:00,14.0,-3.4,30.17,NNW,333,6.0,11.0,45,0.00,,---,0.00,VWS V14.00,2013-01-27 05:12:00,
2013-01-27 00:15:00,14.0,-3.0,30.17,NNW,342,4.0,7.0,46,0.00,,---,0.00,VWS V14.00,2013-01-27 05:15:00,
2013-01-27 00:16:00,14.0,-3.0,30.17,NNW,337,1.0,7.0,46,0.00,,---,0.00,VWS V14.00,2013-01-27 05:16:00,
2013-01-27 00:17:00,14.0,-3.0,30.17,NW,326,10.0,10.0,46,0.00,,---,0.00,VWS V14.00,2013-01-27 05:17:00,
2013-01-27 00:21:00,14.0,-3.0,30.17,NNW,338,5.0,11.0,46,0.00,,---,0.00,VWS V14.00,2013-01-27 05:21:00,
2013-01-27 00:22:00,13.8,-3.1,30.17,NW,321,2.0,11.0,46,0.00,,---,0.00,VWS V14.00,2013-01-27 05:22:00,
2013-01-27 00:26:00,13.8,-2.7,30.17,NNW,329,1.0,11.0,47,0.00,,---,0.00,VWS V14.00,2013-01-27 05:26:00,
2013-01-27 00:27:00,13.8,-2.7,30.17,NNW,338,5.0,11.0,47,0.00,,---,0.00,VWS V14.00,2013-01-27 05:27:00,
2013-01-27 00:30:00,13.8,-2.7,30.17,NNW,333,1.0,11.0,47,0.00,,---,0.00,VWS V14.00,2013-01-27 05:30:00,
2013-01-27 00:31:00,13.8,-2.7,30.17,NNW,338,3.0,5.0,47,0.00,,---,0.00,VWS V14.00,2013-01-27 05:31:00,
2013-01-27 00:32:00,13.8,-2.7,30.17,NNW,338,2.0,5.0,47,0.00,,---,0.00,VWS V14.00,2013-01-27 05:32:00,
2013-01-27 00:33:00,13.8,-2.7,30.17,North,350,2.0,5.0,47,0.00,,---,0.00,VWS V14.00,2013-01-27 05:33:00,
2013-01-27 00:36:00,13.8,-2.7,30.17,NNW,332,4.0,7.0,47,0.00,,---,0.00,VWS V14.00,2013-01-27 05:36:00,
2013-01-27 00:37:00,13.8,-2.7,30.17,NW,326,0.0,7.0,47,0.00,,---,0.00,VWS V14.00,2013-01-27 05:37:00,
2013-01-27 00:38:00,13.8,-2.7,30.17,North,356,4.0,7.0,47,0.00,,---,0.00,VWS V14.00,2013-01-27 05:38:00,
2013-01-27 00:41:00,13.8,-2.7,30.17,NNW,345,4.0,9.0,47,0.00,,---,0.00,VWS V14.00,2013-01-27 05:41:00,
2013-01-27 00:42:00,13.8,-2.7,30.17,West,266,2.0,9.0,47,0.00,,---,0.00,VWS V14.00,2013-01-27 05:42:00,
2013-01-27 00:43:00,13.8,-2.7,30.17,NW,318,5.0,9.0,47,0.00,,---,0.00,VWS V14.00,2013-01-27 05:43:00,
2013-01-27 00:45:00,13.8,-2.2,30.17,North,356,0.0,9.0,48,0.00,,---,0.00,VWS V14.00,2013-01-27 05:45:00,
2013-01-27 00:46:00,13.8,-2.2,30.17,NNW,331,4.0,5.0,48,0.00,,---,0.00,VWS V14.00,2013-01-27 05:46:00,
2013-01-27 00:47:00,13.8,-2.2,30.17,North,0,4.0,7.0,48,0.00,,---,0.00,VWS V14.00,2013-01-27 05:47:00,
2013-01-27 00:48:00,13.8,-2.2,30.17,NNW,347,5.0,7.0,48,0.00,,---,0.00,VWS V14.00,2013-01-27 05:48:00,
2013-01-27 00:51:00,13.8,-2.2,30.17,NNW,341,2.0,7.0,48,0.00,,---,0.00,VWS V14.00,2013-01-27 05:51:00,
2013-01-27 00:52:00,13.8,-2.2,30.17,NNW,342,5.0,7.0,48,0.00,,---,0.00,VWS V14.00,2013-01-27 05:52:00,
2013-01-27 00:53:00,13.8,-2.2,30.17,North,349,0.0,7.0,48,0.00,,---,0.00,VWS V14.00,2013-01-27 05:53:00,
2013-01-27 00:56:00,13.8,-2.2,30.17,North,0,3.0,7.0,48,0.00,,---,0.00,VWS V14.00,2013-01-27 05:56:00,
2013-01-27 00:57:00,13.8,-2.2,30.17,NNW,344,0.0,7.0,48,0.00,,---,0.00,VWS V14.00,2013-01-27 05:57:00,
2013-01-27 00:58:00,13.8,-2.2,30.17,NNW,332,2.0,7.0,48,0.00,,---,0.00,VWS V14.00,2013-01-27 05:58:00,
2013-01-27 01:00:00,13.8,-2.2,30.18,NNW,334,3.0,7.0,48,0.00,,---,0.00,VWS V14.00,2013-01-27 06:00:00,
2013-01-27 01:01:00,13.6,-2.0,30.18,NNW,336,6.0,6.0,49,0.00,,---,0.00,VWS V14.00,2013-01-27 06:01:00,
2013-01-27 01:02:00,13.6,-2.0,30.18,NNW,346,2.0,7.0,49,0.00,,---,0.00,VWS V14.00,2013-01-27 06:02:00,
2013-01-27 01:03:00,13.6,-2.0,30.18,NNW,345,0.0,7.0,49,0.00,,---,0.00,VWS V14.00,2013-01-27 06:03:00,
2013-01-27 01:06:00,13.6,-2.0,30.18,NNW,340,0.0,7.0,49,0.00,,---,0.00,VWS V14.00,2013-01-27 06:06:00,
2013-01-27 01:07:00,13.6,-2.0,30.18,WNW,293,1.0,7.0,49,0.00,,---,0.00,VWS V14.00,2013-01-27 06:07:00,
2013-01-27 01:08:00,13.6,-2.0,30.18,North,353,4.0,7.0,49,0.00,,---,0.00,VWS V14.00,2013-01-27 06:08:00,
2013-01-27 01:11:00,13.6,-2.0,30.18,NW,309,4.0,7.0,49,0.00,,---,0.00,VWS V14.00,2013-01-27 06:11:00,
2013-01-27 01:12:00,13.6,-2.0,30.18,North,352,0.0,7.0,49,0.00,,---,0.00,VWS V14.00,2013-01-27 06:12:00,
2013-01-27 01:13:00,13.6,-2.0,30.18,North,353,0.0,7.0,49,0.00,,---,0.00,VWS V14.00,2013-01-27 06:13:00,
2013-01-27 01:15:00,13.6,-2.0,30.19,NNW,328,0.0,7.0,49,0.00,,---,0.00,VWS V14.00,2013-01-27 06:15:00,
2013-01-27 01:16:00,13.6,-1.6,30.19,NNW,328,0.0,2.0,50,0.00,,---,0.00,VWS V14.00,2013-01-27 06:16:00,
2013-01-27 01:17:00,13.6,-1.6,30.19,NNW,328,0.0,2.0,50,0.00,,---,0.00,VWS V14.00,2013-01-27 06:17:00,
2013-01-27 01:18:00,13.5,-1.7,30.19,NNW,333,0.0,4.0,50,0.00,,---,0.00,VWS V14.00,2013-01-27 06:18:00,
2013-01-27 01:22:00,13.5,-1.7,30.19,North,351,2.0,4.0,50,0.00,,---,0.00,VWS V14.00,2013-01-27 06:22:00,
2013-01-27 01:23:00,13.5,-1.7,30.19,NW,323,0.0,4.0,50,0.00,,---,0.00,VWS V14.00,2013-01-27 06:23:00,
2013-01-27 01:24:00,13.5,-1.7,30.19,NW,323,0.0,4.0,50,0.00,,---,0.00,VWS V14.00,2013-01-27 06:24:00,
2013-01-27 01:27:00,13.5,-1.7,30.19,North,352,0.0,7.0,50,0.00,,---,0.00,VWS V14.00,2013-01-27 06:27:00,
2013-01-27 01:28:00,13.5,-1.7,30.20,West,269,0.0,7.0,50,0.00,,---,0.00,VWS V14.00,2013-01-27 06:28:00,
2013-01-27 01:29:00,13.5,-1.7,30.20,West,276,2.0,7.0,50,0.00,,---,0.00,VWS V14.00,2013-01-27 06:29:00,
2013-01-27 01:30:00,13.5,-1.7,30.20,West,276,0.0,7.0,50,0.00,,---,0.00,VWS V14.00,2013-01-27 06:30:00,
2013-01-27 01:32:00,13.6,-1.6,30.20,NNW,340,0.0,5.0,50,0.00,,---,0.00,VWS V14.00,2013-01-27 06:32:00,
2013-01-27 01:33:00,13.6,-1.6,30.20,North,359,0.0,5.0,50,0.00,,---,0.00,VWS V14.00,2013-01-27 06:33:00,
2013-01-27 01:34:00,13.6,-1.6,30.20,West,268,0.0,5.0,50,0.00,,---,0.00,VWS V14.00,2013-01-27 06:34:00,
2013-01-27 01:37:00,13.6,-1.6,30.20,NW,314,0.0,5.0,50,0.00,,---,0.00,VWS V14.00,2013-01-27 06:37:00,
2013-01-27 01:38:00,13.6,-1.6,30.20,NW,320,3.0,5.0,50,0.00,,---,0.00,VWS V14.00,2013-01-27 06:38:00,
2013-01-27 01:39:00,13.6,-1.6,30.20,NW,325,2.0,5.0,50,0.00,,---,0.00,VWS V14.00,2013-01-27 06:39:00,
2013-01-27 01:42:00,13.6,-1.6,30.20,NW,325,1.0,5.0,50,0.00,,---,0.00,VWS V14.00,2013-01-27 06:42:00,
2013-01-27 01:44:00,13.6,-1.6,30.20,NNW,336,4.0,6.0,50,0.00,,---,0.00,VWS V14.00,2013-01-27 06:44:00,
2013-01-27 01:45:00,13.6,-1.6,30.20,NNW,336,1.0,6.0,50,0.00,,---,0.00,VWS V14.00,2013-01-27 06:45:00,
2013-01-27 01:47:00,13.6,-1.6,30.20,NNE,25,1.0,3.0,50,0.00,,---,0.00,VWS V14.00,2013-01-27 06:47:00,
2013-01-27 01:49:00,13.6,-1.6,30.20,West,262,0.0,5.0,50,0.00,,---,0.00,VWS V14.00,2013-01-27 06:49:00,
2013-01-27 01:52:00,13.6,-1.6,30.20,West,262,0.0,5.0,50,0.00,,---,0.00,VWS V14.00,2013-01-27 06:52:00,
2013-01-27 01:53:00,13.6,-1.6,30.20,West,262,2.0,5.0,50,0.00,,---,0.00,VWS V14.00,2013-01-27 06:53:00,
2013-01-27 01:54:00,13.5,-1.7,30.20,West,264,2.0,5.0,50,0.00,,---,0.00,VWS V14.00,2013-01-27 06:54:00,
2013-01-27 01:57:00,13.5,-1.2,30.20,West,264,2.0,5.0,51,0.00,,---,0.00,VWS V14.00,2013-01-27 06:57:00,
2013-01-27 01:58:00,13.5,-1.2,30.20,West,264,3.0,5.0,51,0.00,,---,0.00,VWS V14.00,2013-01-27 06:58:00,
2013-01-27 01:59:00,13.5,-1.2,30.21,West,264,0.0,5.0,51,0.00,,---,0.00,VWS V14.00,2013-01-27 06:59:00,
2013-01-27 02:00:00,13.5,-1.2,30.21,West,264,0.0,5.0,51,0.00,,---,0.00,VWS V14.00,2013-01-27 07:00:00,
2013-01-27 02:02:00,13.3,-1.4,30.21,West,264,0.0,2.0,51,0.00,,---,0.00,VWS V14.00,2013-01-27 07:02:00,
2013-01-27 02:03:00,13.3,-1.4,30.21,West,265,3.0,3.0,51,0.00,,---,0.00,VWS V14.00,2013-01-27 07:03:00,
2013-01-27 02:04:00,13.3,-1.4,30.21,West,264,0.0,3.0,51,0.00,,---,0.00,VWS V14.00,2013-01-27 07:04:00,
2013-01-27 02:07:00,13.3,-1.0,30.21,West,264,1.0,4.0,52,0.00,,---,0.00,VWS V14.00,2013-01-27 07:07:00,
2013-01-27 02:08:00,13.3,-1.0,30.21,West,264,0.0,4.0,52,0.00,,---,0.00,VWS V14.00,2013-01-27 07:08:00,
2013-01-27 02:13:00,13.1,-1.2,30.21,West,265,0.0,4.0,52,0.00,,---,0.00,VWS V14.00,2013-01-27 07:13:00,
2013-01-27 02:15:00,13.1,-1.2,30.22,West,265,1.0,4.0,52,0.00,,---,0.00,VWS V14.00,2013-01-27 07:15:00,
2013-01-27 02:18:00,13.3,-1.0,30.22,West,266,0.0,3.0,52,0.00,,---,0.00,VWS V14.00,2013-01-27 07:18:00,
2013-01-27 02:19:00,13.3,-1.0,30.22,West,266,0.0,3.0,52,0.00,,---,0.00,VWS V14.00,2013-01-27 07:19:00,
2013-01-27 02:23:00,13.3,-1.0,30.22,WNW,297,0.0,4.0,52,0.00,,---,0.00,VWS V14.00,2013-01-27 07:23:00,
2013-01-27 02:24:00,13.3,-1.0,30.22,NNW,328,5.0,5.0,52,0.00,,---,0.00,VWS V14.00,2013-01-27 07:24:00,
2013-01-27 02:28:00,13.3,-1.0,30.22,NNW,342,2.0,5.0,52,0.00,,---,0.00,VWS V14.00,2013-01-27 07:28:00,
2013-01-27 02:29:00,13.3,-1.0,30.22,NNW,340,0.0,5.0,52,0.00,,---,0.00,VWS V14.00,2013-01-27 07:29:00,
2013-01-27 02:30:00,13.3,-1.0,30.22,NNW,340,2.0,5.0,52,0.00,,---,0.00,VWS V14.00,2013-01-27 07:30:00,
2013-01-27 02:33:00,13.5,-0.8,30.22,NNW,338,0.0,7.0,52,0.00,,---,0.00,VWS V14.00,2013-01-27 07:33:00,
2013-01-27 02:34:00,13.5,-0.8,30.22,NNW,338,1.0,7.0,52,0.00,,---,0.00,VWS V14.00,2013-01-27 07:34:00,
2013-01-27 02:38:00,13.5,-0.8,30.22,NNW,342,0.0,7.0,52,0.00,,---,0.00,VWS V14.00,2013-01-27 07:38:00,
2013-01-27 02:39:00,13.5,-0.8,30.22,NNW,342,0.0,7.0,52,0.00,,---,0.00,VWS V14.00,2013-01-27 07:39:00,
2013-01-27 02:43:00,13.3,-0.6,30.22,NNW,332,3.0,7.0,53,0.00,,---,0.00,VWS V14.00,2013-01-27 07:43:00,
2013-01-27 02:44:00,13.3,-0.6,30.22,NW,326,4.0,7.0,53,0.00,,---,0.00,VWS V14.00,2013-01-27 07:44:00,
2013-01-27 02:45:00,13.3,-0.6,30.22,NNW,336,0.0,7.0,53,0.00,,---,0.00,VWS V14.00,2013-01-27 07:45:00,
2013-01-27 02:48:00,13.5,-0.4,30.22,NNW,340,0.0,7.0,53,0.00,,---,0.00,VWS V14.00,2013-01-27 07:48:00,
2013-01-27 02:49:00,13.5,-0.8,30.22,NNW,345,1.0,7.0,52,0.00,,---,0.00,VWS V14.00,2013-01-27 07:49:00,
2013-01-27 02:54:00,13.5,-0.4,30.22,NNW,344,2.0,7.0,53,0.00,,---,0.00,VWS V14.00,2013-01-27 07:54:00,
2013-01-27 02:59:00,13.5,-0.8,30.22,NNW,338,2.0,7.0,52,0.00,,---,0.00,VWS V14.00,2013-01-27 07:59:00,
2013-01-27 03:00:00,13.5,-0.8,30.22,NNW,335,4.0,7.0,52,0.00,,---,0.00,VWS V14.00,2013-01-27 08:00:00,
2013-01-27 03:04:00,13.5,-0.8,30.22,NNW,340,3.0,5.0,52,0.00,,---,0.00,VWS V14.00,2013-01-27 08:04:00,
2013-01-27 03:05:00,13.5,-0.8,30.22,NNW,336,2.0,5.0,52,0.00,,---,0.00,VWS V14.00,2013-01-27 08:05:00,
2013-01-27 03:09:00,13.5,-0.4,30.22,NNW,340,4.0,6.0,53,0.00,,---,0.00,VWS V14.00,2013-01-27 08:09:00,
2013-01-27 03:10:00,13.5,-0.4,30.22,NNW,335,1.0,6.0,53,0.00,,---,0.00,VWS V14.00,2013-01-27 08:10:00,
2013-01-27 03:14:00,13.5,-0.4,30.22,NW,325,2.0,6.0,53,0.00,,---,0.00,VWS V14.00,2013-01-27 08:14:00,
2013-01-27 03:15:00,13.5,-0.4,30.22,NW,325,2.0,4.0,53,0.00,,---,0.00,VWS V14.00,2013-01-27 08:15:00,
2013-01-27 03:19:00,13.5,-0.4,30.22,NNW,345,3.0,5.0,53,0.00,,---,0.00,VWS V14.00,2013-01-27 08:19:00,
2013-01-27 03:20:00,13.5,-0.4,30.22,North,9,1.0,6.0,53,0.00,,---,0.00,VWS V14.00,2013-01-27 08:20:00,
2013-01-27 03:24:00,13.6,-0.3,30.22,NNW,340,1.0,6.0,53,0.00,,---,0.00,VWS V14.00,2013-01-27 08:24:00,
2013-01-27 03:26:00,13.5,-0.4,30.22,NNW,345,3.0,6.0,53,0.00,,---,0.00,VWS V14.00,2013-01-27 08:26:00,
2013-01-27 03:29:00,13.6,-0.3,30.22,NNW,334,0.0,11.0,53,0.00,,---,0.00,VWS V14.00,2013-01-27 08:29:00,
2013-01-27 03:30:00,13.6,-0.3,30.22,NNW,334,2.0,11.0,53,0.00,,---,0.00,VWS V14.00,2013-01-27 08:30:00,
2013-01-27 03:31:00,13.6,-0.8,30.22,NNW,348,3.0,4.0,52,0.00,,---,0.00,VWS V14.00,2013-01-27 08:31:00,
2013-01-27 03:34:00,13.6,-0.8,30.22,North,0,3.0,6.0,52,0.00,,---,0.00,VWS V14.00,2013-01-27 08:34:00,
2013-01-27 03:36:00,13.6,-0.8,30.22,NNW,347,2.0,6.0,52,0.00,,---,0.00,VWS V14.00,2013-01-27 08:36:00,
2013-01-27 03:39:00,13.8,-0.6,30.22,North,1,0.0,9.0,52,0.00,,---,0.00,VWS V14.00,2013-01-27 08:39:00,
2013-01-27 03:40:00,13.8,-0.6,30.22,North,1,0.0,9.0,52,0.00,,---,0.00,VWS V14.00,2013-01-27 08:40:00,
2013-01-27 03:41:00,13.6,-0.3,30.22,North,353,3.0,9.0,53,0.00,,---,0.00,VWS V14.00,2013-01-27 08:41:00,
2013-01-27 03:44:00,13.6,-0.3,30.23,North,351,1.0,2.0,53,0.00,,---,0.00,VWS V14.00,2013-01-27 08:44:00,
2013-01-27 03:45:00,13.6,-0.3,30.23,North,351,3.0,3.0,53,0.00,,---,0.00,VWS V14.00,2013-01-27 08:45:00,
2013-01-27 03:46:00,13.6,-0.3,30.23,West,277,0.0,5.0,53,0.00,,---,0.00,VWS V14.00,2013-01-27 08:46:00,
2013-01-27 03:49:00,13.6,-0.3,30.23,North,351,0.0,5.0,53,0.00,,---,0.00,VWS V14.00,2013-01-27 08:49:00,
2013-01-27 03:50:00,13.6,-0.3,30.23,North,351,0.0,5.0,53,0.00,,---,0.00,VWS V14.00,2013-01-27 08:50:00,
2013-01-27 03:51:00,13.6,-0.3,30.23,NNW,327,0.0,5.0,53,0.00,,---,0.00,VWS V14.00,2013-01-27 08:51:00,
2013-01-27 03:54:00,13.6,-0.3,30.23,NNW,335,0.0,5.0,53,0.00,,---,0.00,VWS V14.00,2013-01-27 08:54:00,
2013-01-27 03:55:00,13.6,-0.3,30.23,NNW,335,0.0,5.0,53,0.00,,---,0.00,VWS V14.00,2013-01-27 08:55:00,
2013-01-27 03:56:00,13.6,-0.3,30.23,NNW,335,0.0,5.0,53,0.00,,---,0.00,VWS V14.00,2013-01-27 08:56:00,
2013-01-27 03:59:00,13.6,-0.3,30.23,NNW,341,0.0,1.0,53,0.00,,---,0.00,VWS V14.00,2013-01-27 08:59:00,
2013-01-27 04:00:00,13.6,-0.3,30.23,NNW,341,0.0,1.0,53,0.00,,---,0.00,VWS V14.00,2013-01-27 09:00:00,
2013-01-27 04:01:00,13.6,-0.3,30.23,NNW,333,2.0,4.0,53,0.00,,---,0.00,VWS V14.00,2013-01-27 09:01:00,
2013-01-27 04:05:00,13.6,-0.3,30.23,NNW,337,0.0,4.0,53,0.00,,---,0.00,VWS V14.00,2013-01-27 09:05:00,
2013-01-27 04:06:00,13.6,-0.3,30.23,NNW,340,2.0,4.0,53,0.00,,---,0.00,VWS V14.00,2013-01-27 09:06:00,
2013-01-27 04:10:00,13.6,-0.3,30.23,NNW,337,0.0,5.0,53,0.00,,---,0.00,VWS V14.00,2013-01-27 09:10:00,
2013-01-27 04:11:00,13.6,-0.3,30.23,NNW,345,2.0,5.0,53,0.00,,---,0.00,VWS V14.00,2013-01-27 09:11:00,
2013-01-27 04:15:00,13.6,-0.3,30.23,NNW,340,0.0,2.0,53,0.00,,---,0.00,VWS V14.00,2013-01-27 09:15:00,
2013-01-27 04:16:00,13.6,-0.3,30.23,North,349,0.0,6.0,53,0.00,,---,0.00,VWS V14.00,2013-01-27 09:16:00,
2013-01-27 04:20:00,13.6,-0.3,30.23,NNW,348,4.0,6.0,53,0.00,,---,0.00,VWS V14.00,2013-01-27 09:20:00,
2013-01-27 04:21:00,13.6,-0.3,30.23,NNW,333,0.0,6.0,53,0.00,,---,0.00,VWS V14.00,2013-01-27 09:21:00,
2013-01-27 04:25:00,13.6,-0.3,30.23,NNW,329,1.0,10.0,53,0.00,,---,0.00,VWS V14.00,2013-01-27 09:25:00,
2013-01-27 04:26:00,13.6,-0.3,30.23,NNW,329,0.0,10.0,53,0.00,,---,0.00,VWS V14.00,2013-01-27 09:26:00,
2013-01-27 04:30:00,13.6,-0.3,30.23,NW,326,0.0,3.0,53,0.00,,---,0.00,VWS V14.00,2013-01-27 09:30:00,
2013-01-27 04:31:00,13.6,-0.3,30.23,NW,326,0.0,3.0,53,0.00,,---,0.00,VWS V14.00,2013-01-27 09:31:00,
2013-01-27 04:32:00,13.6,-0.3,30.23,NW,326,0.0,3.0,53,0.00,,---,0.00,VWS V14.00,2013-01-27 09:32:00,
2013-01-27 04:35:00,13.5,-0.4,30.23,NNW,335,0.0,3.0,53,0.00,,---,0.00,VWS V14.00,2013-01-27 09:35:00,
2013-01-27 04:36:00,13.5,-0.4,30.23,NNW,335,0.0,3.0,53,0.00,,---,0.00,VWS V14.00,2013-01-27 09:36:00,
2013-01-27 04:37:00,13.5,-0.4,30.23,NNW,335,0.0,3.0,53,0.00,,---,0.00,VWS V14.00,2013-01-27 09:37:00,
2013-01-27 04:40:00,13.5,0.0,30.23,North,352,3.0,4.0,54,0.00,,---,0.00,VWS V14.00,2013-01-27 09:40:00,
2013-01-27 04:41:00,13.5,0.0,30.23,North,349,1.0,4.0,54,0.00,,---,0.00,VWS V14.00,2013-01-27 09:41:00,
2013-01-27 04:42:00,13.5,0.0,30.23,NW,325,1.0,4.0,54,0.00,,---,0.00,VWS V14.00,2013-01-27 09:42:00,
2013-01-27 04:45:00,13.5,-0.4,30.24,NNE,15,0.0,4.0,53,0.00,,---,0.00,VWS V14.00,2013-01-27 09:45:00,
2013-01-27 04:46:00,13.5,-0.4,30.24,NNE,15,0.0,4.0,53,0.00,,---,0.00,VWS V14.00,2013-01-27 09:46:00,
2013-01-27 04:47:00,13.5,0.0,30.24,North,352,0.0,4.0,54,0.00,,---,0.00,VWS V14.00,2013-01-27 09:47:00,
2013-01-27 04:50:00,13.5,0.0,30.24,North,352,0.0,4.0,54,0.00,,---,0.00,VWS V14.00,2013-01-27 09:50:00,
2013-01-27 04:51:00,13.3,-0.2,30.24,North,352,0.0,4.0,54,0.00,,---,0.00,VWS V14.00,2013-01-27 09:51:00,
2013-01-27 04:52:00,13.3,-0.2,30.24,NW,314,0.0,4.0,54,0.00,,---,0.00,VWS V14.00,2013-01-27 09:52:00,
2013-01-27 04:56:00,13.3,-0.2,30.24,NW,324,0.0,4.0,54,0.00,,---,0.00,VWS V14.00,2013-01-27 09:56:00,
2013-01-27 04:58:00,13.3,-0.2,30.24,NW,324,3.0,4.0,54,0.00,,---,0.00,VWS V14.00,2013-01-27 09:58:00,
2013-01-27 05:00:00,13.3,-0.2,30.24,NW,326,2.0,7.0,54,0.00,,---,0.00,VWS V14.00,2013-01-27 10:00:00,
2013-01-27 05:01:00,13.5,-0.4,30.24,North,354,2.0,3.0,53,0.00,,---,0.00,VWS V14.00,2013-01-27 10:01:00,
2013-01-27 05:03:00,13.5,0.0,30.24,North,349,0.0,3.0,54,0.00,,---,0.00,VWS V14.00,2013-01-27 10:03:00,
2013-01-27 05:06:00,13.5,-0.4,30.24,North,356,0.0,4.0,53,0.00,,---,0.00,VWS V14.00,2013-01-27 10:06:00,
2013-01-27 05:08:00,13.5,-0.4,30.24,NNW,329,1.0,6.0,53,0.00,,---,0.00,VWS V14.00,2013-01-27 10:08:00,
2013-01-27 05:11:00,13.6,-0.3,30.24,NNW,334,2.0,7.0,53,0.00,,---,0.00,VWS V14.00,2013-01-27 10:11:00,
2013-01-27 05:13:00,13.6,-0.3,30.25,NNW,338,0.0,7.0,53,0.00,,---,0.00,VWS V14.00,2013-01-27 10:13:00,
2013-01-27 05:15:00,13.6,-0.3,30.25,NNW,337,0.0,7.0,53,0.00,,---,0.00,VWS V14.00,2013-01-27 10:15:00,
2013-01-27 05:16:00,13.6,-0.3,30.25,North,356,0.0,6.0,53,0.00,,---,0.00,VWS V14.00,2013-01-27 10:16:00,
2013-01-27 05:19:00,13.6,-0.3,30.25,North,356,1.0,6.0,53,0.00,,---,0.00,VWS V14.00,2013-01-27 10:19:00,
2013-01-27 05:21:00,13.6,-0.3,30.25,NNW,333,2.0,6.0,53,0.00,,---,0.00,VWS V14.00,2013-01-27 10:21:00,
2013-01-27 05:24:00,13.6,-0.3,30.25,NNW,342,1.0,6.0,53,0.00,,---,0.00,VWS V14.00,2013-01-27 10:24:00,
2013-01-27 05:26:00,13.6,-0.3,30.25,North,355,0.0,6.0,53,0.00,,---,0.00,VWS V14.00,2013-01-27 10:26:00,
2013-01-27 05:29:00,13.6,-0.3,30.25,North,349,0.0,6.0,53,0.00,,---,0.00,VWS V14.00,2013-01-27 10:29:00,
2013-01-27 05:30:00,13.6,-0.3,30.25,North,349,0.0,6.0,53,0.00,,---,0.00,VWS V14.00,2013-01-27 10:30:00,
2013-01-27 05:31:00,13.6,-0.3,30.25,North,0,4.0,6.0,53,0.00,,---,0.00,VWS V14.00,2013-01-27 10:31:00,
2013-01-27 05:34:00,13.6,-0.3,30.25,North,350,1.0,6.0,53,0.00,,---,0.00,VWS V14.00,2013-01-27 10:34:00,
2013-01-27 05:36:00,13.6,-0.8,30.25,North,350,0.0,6.0,52,0.00,,---,0.00,VWS V14.00,2013-01-27 10:36:00,
2013-01-27 05:37:00,13.6,-0.8,30.25,North,350,0.0,6.0,52,0.00,,---,0.00,VWS V14.00,2013-01-27 10:37:00,
2013-01-27 05:39:00,13.6,-0.3,30.25,NNW,332,4.0,6.0,53,0.00,,---,0.00,VWS V14.00,2013-01-27 10:39:00,
2013-01-27 05:41:00,13.6,-0.8,30.25,NNW,339,0.0,6.0,52,0.00,,---,0.00,VWS V14.00,2013-01-27 10:41:00,
2013-01-27 05:42:00,13.6,-0.8,30.25,NNW,339,1.0,6.0,52,0.00,,---,0.00,VWS V14.00,2013-01-27 10:42:00,
2013-01-27 05:44:00,13.6,-0.8,30.25,NNW,327,1.0,6.0,52,0.00,,---,0.00,VWS V14.00,2013-01-27 10:44:00,
2013-01-27 05:45:00,13.6,-0.8,30.25,West,269,1.0,6.0,52,0.00,,---,0.00,VWS V14.00,2013-01-27 10:45:00,
2013-01-27 05:46:00,13.6,-0.3,30.25,WNW,288,1.0,2.0,53,0.00,,---,0.00,VWS V14.00,2013-01-27 10:46:00,
2013-01-27 05:47:00,13.6,-0.3,30.25,WNW,288,0.0,2.0,53,0.00,,---,0.00,VWS V14.00,2013-01-27 10:47:00,
2013-01-27 05:49:00,13.6,-0.3,30.25,WNW,288,0.0,2.0,53,0.00,,---,0.00,VWS V14.00,2013-01-27 10:49:00,
2013-01-27 05:52:00,13.6,-0.3,30.25,WNW,288,0.0,2.0,53,0.00,,---,0.00,VWS V14.00,2013-01-27 10:52:00,
2013-01-27 05:54:00,13.5,-0.4,30.25,NW,309,2.0,2.0,53,0.00,,---,0.00,VWS V14.00,2013-01-27 10:54:00,
2013-01-27 05:57:00,13.5,-0.4,30.25,NW,326,0.0,5.0,53,0.00,,---,0.00,VWS V14.00,2013-01-27 10:57:00,
2013-01-27 05:59:00,13.6,-0.8,30.26,NW,326,1.0,1.0,52,0.00,,---,0.00,VWS V14.00,2013-01-27 10:59:00,
2013-01-27 06:00:00,13.6,-0.8,30.26,NW,326,2.0,5.0,52,0.00,,---,0.00,VWS V14.00,2013-01-27 11:00:00,
2013-01-27 06:02:00,13.6,-0.8,30.26,NNW,328,0.0,6.0,52,0.00,,---,0.00,VWS V14.00,2013-01-27 11:02:00,
2013-01-27 06:04:00,13.6,-0.8,30.26,NNW,328,0.0,6.0,52,0.00,,---,0.00,VWS V14.00,2013-01-27 11:04:00,
2013-01-27 06:07:00,13.5,-0.4,30.26,NNW,330,0.0,6.0,53,0.00,,---,0.00,VWS V14.00,2013-01-27 11:07:00,
2013-01-27 06:10:00,13.5,-0.8,30.26,NNW,338,1.0,6.0,52,0.00,,---,0.00,VWS V14.00,2013-01-27 11:10:00,
2013-01-27 06:12:00,13.5,-0.8,30.26,NNW,338,0.0,6.0,52,0.00,,---,0.00,VWS V14.00,2013-01-27 11:12:00,
2013-01-27 06:13:00,13.5,-0.8,30.26,NNW,338,1.0,6.0,52,0.00,,---,0.00,VWS V14.00,2013-01-27 11:13:00,
2013-01-27 06:15:00,13.5,-0.8,30.26,North,352,0.0,3.0,52,0.00,,---,0.00,VWS V14.00,2013-01-27 11:15:00,
2013-01-27 06:17:00,13.5,-0.8,30.26,North,349,0.0,3.0,52,0.00,,---,0.00,VWS V14.00,2013-01-27 11:17:00,
2013-01-27 06:18:00,13.6,-0.8,30.26,North,349,0.0,3.0,52,0.00,,---,0.00,VWS V14.00,2013-01-27 11:18:00,
2013-01-27 06:20:00,13.6,-0.8,30.26,North,359,3.0,4.0,52,0.00,,---,0.00,VWS V14.00,2013-01-27 11:20:00,
2013-01-27 06:22:00,13.6,-0.8,30.26,NNW,341,0.0,5.0,52,0.00,,---,0.00,VWS V14.00,2013-01-27 11:22:00,
2013-01-27 06:23:00,13.6,-0.8,30.26,NNW,342,0.0,5.0,52,0.00,,---,0.00,VWS V14.00,2013-01-27 11:23:00,
2013-01-27 06:25:00,13.6,-0.8,30.26,NNW,341,2.0,5.0,52,0.00,,---,0.00,VWS V14.00,2013-01-27 11:25:00,
2013-01-27 06:27:00,13.5,-0.8,30.26,NNW,340,1.0,5.0,52,0.00,,---,0.00,VWS V14.00,2013-01-27 11:27:00,
2013-01-27 06:28:00,13.5,-0.8,30.26,NNW,340,1.0,5.0,52,0.00,,---,0.00,VWS V14.00,2013-01-27 11:28:00,
2013-01-27 06:30:00,13.5,-0.8,30.27,NNW,340,0.0,2.0,52,0.00,,---,0.00,VWS V14.00,2013-01-27 11:30:00,
2013-01-27 06:32:00,13.5,-0.8,30.27,North,359,3.0,4.0,52,0.00,,---,0.00,VWS V14.00,2013-01-27 11:32:00,
2013-01-27 06:33:00,13.6,-0.8,30.27,NNW,335,0.0,4.0,52,0.00,,---,0.00,VWS V14.00,2013-01-27 11:33:00,
2013-01-27 06:35:00,13.6,-0.8,30.27,NNW,334,1.0,5.0,52,0.00,,---,0.00,VWS V14.00,2013-01-27 11:35:00,
2013-01-27 06:37:00,13.6,-0.8,30.27,NNW,332,2.0,6.0,52,0.00,,---,0.00,VWS V14.00,2013-01-27 11:37:00,
2013-01-27 06:38:00,13.6,-1.2,30.27,NNW,332,2.0,6.0,51,0.00,,---,0.00,VWS V14.00,2013-01-27 11:38:00,
2013-01-27 06:40:00,13.6,-1.2,30.27,NNW,345,3.0,6.0,51,0.00,,---,0.00,VWS V14.00,2013-01-27 11:40:00,
2013-01-27 06:42:00,13.6,-1.2,30.27,NNW,340,1.0,6.0,51,0.00,,---,0.00,VWS V14.00,2013-01-27 11:42:00,
2013-01-27 06:43:00,13.6,-1.2,30.27,NNW,335,1.0,6.0,51,0.00,,---,0.00,VWS V14.00,2013-01-27 11:43:00,
2013-01-27 06:45:00,13.8,-1.0,30.27,NNW,340,0.0,5.0,51,0.00,,---,0.00,VWS V14.00,2013-01-27 11:45:00,
2013-01-27 06:48:00,13.8,-1.0,30.27,NNW,340,0.0,5.0,51,0.00,,---,0.00,VWS V14.00,2013-01-27 11:48:00,
2013-01-27 06:51:00,13.8,-1.0,30.27,West,262,0.0,5.0,51,0.00,,---,0.00,VWS V14.00,2013-01-27 11:51:00,
2013-01-27 06:53:00,13.8,-1.0,30.27,North,1,0.0,5.0,51,0.00,,---,0.00,VWS V14.00,2013-01-27 11:53:00,
2013-01-27 06:56:00,13.8,-1.0,30.27,NNW,347,1.0,5.0,51,0.00,,---,0.00,VWS V14.00,2013-01-27 11:56:00,
2013-01-27 06:58:00,13.8,-1.0,30.27,North,358,1.0,5.0,51,0.00,,---,0.00,VWS V14.00,2013-01-27 11:58:00,
2013-01-27 06:59:00,13.8,-1.0,30.28,NNW,335,1.0,5.0,51,0.00,,---,0.00,VWS V14.00,2013-01-27 11:59:00,
2013-01-27 07:00:00,13.8,-1.0,30.28,NNW,335,1.0,5.0,51,0.00,,---,0.00,VWS V14.00,2013-01-27 12:00:00,
2013-01-27 07:01:00,13.8,-1.0,30.28,NNW,329,1.0,4.0,51,0.00,,---,0.00,VWS V14.00,2013-01-27 12:01:00,
2013-01-27 07:03:00,13.6,-1.2,30.28,NNW,335,1.0,4.0,51,0.00,,---,0.00,VWS V14.00,2013-01-27 12:03:00,
2013-01-27 07:04:00,13.6,-1.2,30.28,NNW,342,1.0,4.0,51,0.00,,---,0.00,VWS V14.00,2013-01-27 12:04:00,
2013-01-27 07:06:00,13.6,-1.2,30.28,NNW,342,0.0,4.0,51,0.00,,---,0.00,VWS V14.00,2013-01-27 12:06:00,
2013-01-27 07:08:00,13.6,-1.2,30.28,NNW,335,1.0,6.0,51,0.00,,---,0.00,VWS V14.00,2013-01-27 12:08:00,
2013-01-27 07:09:00,13.6,-1.6,30.28,NNW,335,0.0,6.0,50,0.00,,---,0.00,VWS V14.00,2013-01-27 12:09:00,
2013-01-27 07:11:00,13.6,-1.6,30.28,NNW,335,0.0,6.0,50,0.00,,---,0.00,VWS V14.00,2013-01-27 12:11:00,
2013-01-27 07:13:00,13.6,-1.6,30.28,NW,326,2.0,6.0,50,0.00,,---,0.00,VWS V14.00,2013-01-27 12:13:00,
2013-01-27 07:14:00,13.6,-1.6,30.28,NNW,346,0.0,0.0,50,0.00,,---,0.00,VWS V14.00,2013-01-27 12:14:00,
2013-01-27 07:15:00,13.6,-1.6,30.28,NNW,346,0.0,6.0,50,0.00,,---,0.00,VWS V14.00,2013-01-27 12:15:00,
2013-01-27 07:17:00,13.8,-1.4,30.28,North,1,5.0,5.0,50,0.00,,---,0.00,VWS V14.00,2013-01-27 12:17:00,
2013-01-27 07:18:00,13.8,-1.4,30.28,NNW,347,2.0,5.0,50,0.00,,---,0.00,VWS V14.00,2013-01-27 12:18:00,
2013-01-27 07:19:00,13.8,-1.4,30.28,NNW,345,1.0,5.0,50,0.00,,---,0.00,VWS V14.00,2013-01-27 12:19:00,
2013-01-27 07:22:00,14.0,-1.2,30.28,NW,326,1.0,6.0,50,0.00,,---,0.00,VWS V14.00,2013-01-27 12:22:00,
2013-01-27 07:23:00,14.0,-1.2,30.28,NNW,338,0.0,6.0,50,0.00,,---,0.00,VWS V14.00,2013-01-27 12:23:00,
2013-01-27 07:24:00,14.0,-1.2,30.28,NNW,339,0.0,6.0,50,0.00,,---,0.00,VWS V14.00,2013-01-27 12:24:00,
2013-01-27 07:27:00,14.0,-1.6,30.28,North,0,0.0,7.0,49,0.00,,---,0.00,VWS V14.00,2013-01-27 12:27:00,
2013-01-27 07:28:00,14.0,-1.6,30.28,NW,325,0.0,7.0,49,0.00,,---,0.00,VWS V14.00,2013-01-27 12:28:00,
2013-01-27 07:29:00,14.0,-1.6,30.29,NNW,340,2.0,10.0,49,0.00,,---,0.00,VWS V14.00,2013-01-27 12:29:00,
2013-01-27 07:30:00,14.0,-1.6,30.29,NNW,330,3.0,5.0,49,0.00,,---,0.00,VWS V14.00,2013-01-27 12:30:00,
2013-01-27 07:32:00,14.0,-1.6,30.29,NNW,344,0.0,6.0,49,0.00,,---,0.00,VWS V14.00,2013-01-27 12:32:00,
2013-01-27 07:33:00,14.1,-1.5,30.29,North,0,1.0,6.0,49,0.00,,---,0.00,VWS V14.00,2013-01-27 12:33:00,
2013-01-27 07:34:00,14.1,-1.5,30.29,NNW,328,2.0,6.0,49,0.00,,---,0.00,VWS V14.00,2013-01-27 12:34:00,
2013-01-27 07:35:00,14.1,-1.5,30.29,NW,326,0.0,6.0,49,0.00,,---,0.00,VWS V14.00,2013-01-27 12:35:00,
2013-01-27 07:37:00,14.1,-2.0,30.29,NW,322,0.0,6.0,48,0.00,,---,0.00,VWS V14.00,2013-01-27 12:37:00,
2013-01-27 07:39:00,14.1,-2.0,30.29,North,356,6.0,9.0,48,0.00,,---,0.00,VWS V14.00,2013-01-27 12:39:00,
2013-01-27 07:40:00,14.1,-2.0,30.29,NW,326,4.0,9.0,48,0.00,,---,0.00,VWS V14.00,2013-01-27 12:40:00,
2013-01-27 07:42:00,14.3,-1.8,30.29,WSW,238,1.0,9.0,48,0.00,,---,0.00,VWS V14.00,2013-01-27 12:42:00,
2013-01-27 07:44:00,14.3,-1.8,30.30,NNW,347,3.0,9.0,48,0.00,,---,0.00,VWS V14.00,2013-01-27 12:44:00,
2013-01-27 07:45:00,14.3,-2.2,30.30,WNW,282,2.0,2.0,47,0.00,,---,0.00,VWS V14.00,2013-01-27 12:45:00,
2013-01-27 07:47:00,14.3,-2.2,30.30,NNW,335,2.0,6.0,47,0.00,,---,0.00,VWS V14.00,2013-01-27 12:47:00,
2013-01-27 07:49:00,14.4,-2.1,30.30,NNW,340,2.0,6.0,47,0.00,,---,0.00,VWS V14.00,2013-01-27 12:49:00,
2013-01-27 07:50:00,14.4,-2.1,30.30,NNW,330,2.0,7.0,47,0.00,,---,0.00,VWS V14.00,2013-01-27 12:50:00,
2013-01-27 07:52:00,14.4,-2.1,30.30,NNW,330,2.0,7.0,47,0.00,,---,0.00,VWS V14.00,2013-01-27 12:52:00,
2013-01-27 07:54:00,14.6,-2.0,30.30,North,0,0.0,7.0,47,0.00,,---,0.00,VWS V14.00,2013-01-27 12:54:00,
2013-01-27 07:55:00,14.6,-2.4,30.30,NW,309,3.0,13.0,46,0.00,,---,0.00,VWS V14.00,2013-01-27 12:55:00,
2013-01-27 07:57:00,14.6,-2.4,30.30,North,4,0.0,13.0,46,0.00,,---,0.00,VWS V14.00,2013-01-27 12:57:00,
2013-01-27 07:59:00,14.8,-1.8,30.30,NNW,332,4.0,13.0,47,0.00,,---,0.00,VWS V14.00,2013-01-27 12:59:00,
2013-01-27 08:00:00,14.8,-2.2,30.30,NNW,338,2.0,2.0,46,0.00,,---,0.00,VWS V14.00,2013-01-27 13:00:00,
2013-01-27 08:02:00,14.8,-2.7,30.30,NW,310,0.0,6.0,45,0.00,,---,0.00,VWS V14.00,2013-01-27 13:02:00,
2013-01-27 08:04:00,14.8,-2.2,30.30,North,358,0.0,6.0,46,0.00,,---,0.00,VWS V14.00,2013-01-27 13:04:00,
2013-01-27 08:05:00,14.8,-2.2,30.30,North,358,0.0,6.0,46,0.00,,---,0.00,VWS V14.00,2013-01-27 13:05:00,
2013-01-27 08:07:00,14.9,-2.6,30.30,NNW,339,2.0,7.0,45,0.00,,---,0.00,VWS V14.00,2013-01-27 13:07:00,
2013-01-27 08:09:00,14.9,-2.6,30.30,NNW,339,2.0,7.0,45,0.00,,---,0.00,VWS V14.00,2013-01-27 13:09:00,
2013-01-27 08:10:00,14.9,-2.6,30.30,NNW,340,1.0,7.0,45,0.00,,---,0.00,VWS V14.00,2013-01-27 13:10:00,
2013-01-27 08:12:00,15.1,-2.4,30.30,NNW,347,2.0,7.0,45,0.00,,---,0.00,VWS V14.00,2013-01-27 13:12:00,
2013-01-27 08:14:00,15.1,-2.4,30.31,NNW,339,5.0,7.0,45,0.00,,---,0.00,VWS V14.00,2013-01-27 13:14:00,
2013-01-27 08:15:00,15.1,-2.4,30.31,North,351,3.0,7.0,45,0.00,,---,0.00,VWS V14.00,2013-01-27 13:15:00,
2013-01-27 08:16:00,15.1,-2.9,30.31,NNW,335,0.0,6.0,44,0.00,,---,0.00,VWS V14.00,2013-01-27 13:16:00,
2013-01-27 08:18:00,15.1,-2.4,30.31,North,355,2.0,6.0,45,0.00,,---,0.00,VWS V14.00,2013-01-27 13:18:00,
2013-01-27 08:19:00,15.2,-2.8,30.31,West,267,3.0,6.0,44,0.00,,---,0.00,VWS V14.00,2013-01-27 13:19:00,
2013-01-27 08:20:00,15.2,-2.8,30.31,NW,316,3.0,11.0,44,0.00,,---,0.00,VWS V14.00,2013-01-27 13:20:00,
2013-01-27 08:21:00,15.2,-2.8,30.31,NNW,342,3.0,11.0,44,0.00,,---,0.00,VWS V14.00,2013-01-27 13:21:00,
2013-01-27 08:23:00,15.4,-2.6,30.31,NW,325,1.0,11.0,44,0.00,,---,0.00,VWS V14.00,2013-01-27 13:23:00,
2013-01-27 08:24:00,15.4,-2.6,30.31,NW,324,4.0,11.0,44,0.00,,---,0.00,VWS V14.00,2013-01-27 13:24:00,
2013-01-27 08:25:00,15.4,-2.6,30.31,NW,304,4.0,11.0,44,0.00,,---,0.00,VWS V14.00,2013-01-27 13:25:00,
2013-01-27 08:27:00,15.4,-3.1,30.31,North,355,1.0,11.0,43,0.00,,---,0.00,VWS V14.00,2013-01-27 13:27:00,
2013-01-27 08:28:00,15.6,-2.9,30.31,NNW,342,4.0,11.0,43,0.00,,---,0.00,VWS V14.00,2013-01-27 13:28:00,
2013-01-27 08:30:00,15.6,-2.4,30.31,NNW,328,7.0,8.0,44,0.00,,---,0.00,VWS V14.00,2013-01-27 13:30:00,
2013-01-27 08:32:00,15.6,-2.9,30.31,NNW,328,11.0,11.0,43,0.00,,---,0.00,VWS V14.00,2013-01-27 13:32:00,
2013-01-27 08:33:00,15.7,-2.8,30.31,North,359,5.0,11.0,43,0.00,,---,0.00,VWS V14.00,2013-01-27 13:33:00,
2013-01-27 08:35:00,15.7,-2.8,30.31,NW,322,2.0,11.0,43,0.00,,---,0.00,VWS V14.00,2013-01-27 13:35:00,
2013-01-27 08:37:00,15.7,-2.8,30.31,North,359,5.0,11.0,43,0.00,,---,0.00,VWS V14.00,2013-01-27 13:37:00,
2013-01-27 08:38:00,15.9,-3.1,30.31,NNW,348,4.0,11.0,42,0.00,,---,0.00,VWS V14.00,2013-01-27 13:38:00,
2013-01-27 08:40:00,15.9,-3.6,30.31,North,353,6.0,17.0,41,0.00,,---,0.00,VWS V14.00,2013-01-27 13:40:00,
2013-01-27 08:42:00,15.9,-3.1,30.31,NNW,332,4.0,17.0,42,0.00,,---,0.00,VWS V14.00,2013-01-27 13:42:00,
2013-01-27 08:43:00,16.1,-3.4,30.31,NNW,330,12.0,17.0,41,0.00,,---,0.00,VWS V14.00,2013-01-27 13:43:00,
2013-01-27 08:45:00,16.1,-3.4,30.32,NW,322,8.0,13.0,41,0.00,,---,0.00,VWS V14.00,2013-01-27 13:45:00,
2013-01-27 08:47:00,16.2,-3.9,30.32,NNW,338,12.0,15.0,40,0.00,,---,0.00,VWS V14.00,2013-01-27 13:47:00,
2013-01-27 08:48:00,16.2,-3.9,30.32,North,351,6.0,15.0,40,0.00,,---,0.00,VWS V14.00,2013-01-27 13:48:00,
2013-01-27 08:50:00,16.2,-3.9,30.32,North,359,9.0,16.0,40,0.00,,---,0.00,VWS V14.00,2013-01-27 13:50:00,
2013-01-27 08:52:00,16.2,-3.9,30.32,NNW,342,4.0,16.0,40,0.00,,---,0.00,VWS V14.00,2013-01-27 13:52:00,
2013-01-27 08:53:00,16.4,-3.7,30.32,North,4,5.0,26.0,40,0.00,,---,0.00,VWS V14.00,2013-01-27 13:53:00,
2013-01-27 08:55:00,16.4,-3.7,30.32,North,0,3.0,26.0,40,0.00,,---,0.00,VWS V14.00,2013-01-27 13:55:00,
2013-01-27 08:57:00,16.5,-3.6,30.32,NNW,334,10.0,26.0,40,0.00,,---,0.00,VWS V14.00,2013-01-27 13:57:00,
2013-01-27 08:58:00,16.5,-3.6,30.33,NW,319,7.0,26.0,40,0.00,,---,0.00,VWS V14.00,2013-01-27 13:58:00,
2013-01-27 09:00:00,16.5,-4.1,30.33,NNW,330,9.0,15.0,39,0.00,,---,0.00,VWS V14.00,2013-01-27 14:00:00,
2013-01-27 09:01:00,16.5,-4.1,30.33,NW,319,12.0,15.0,39,0.00,,---,0.00,VWS V14.00,2013-01-27 14:01:00,
2013-01-27 09:03:00,16.7,-3.4,30.33,NNW,337,2.0,15.0,40,0.00,,---,0.00,VWS V14.00,2013-01-27 14:03:00,
2013-01-27 09:05:00,16.7,-3.9,30.33,NNW,334,11.0,15.0,39,0.00,,---,0.00,VWS V14.00,2013-01-27 14:05:00,
2013-01-27 09:06:00,16.7,-3.9,30.33,NNW,345,4.0,15.0,39,0.00,,---,0.00,VWS V14.00,2013-01-27 14:06:00,
2013-01-27 09:08:00,16.9,-4.3,30.33,NW,313,6.0,15.0,38,0.00,,---,0.00,VWS V14.00,2013-01-27 14:08:00,
2013-01-27 09:11:00,16.9,-4.3,30.33,NNW,330,5.0,15.0,38,0.00,,---,0.00,VWS V14.00,2013-01-27 14:11:00,
2013-01-27 09:13:00,17.0,-4.2,30.33,NW,320,6.0,19.0,38,0.00,,---,0.00,VWS V14.00,2013-01-27 14:13:00,
2013-01-27 09:15:00,17.0,-4.2,30.33,North,3,4.0,19.0,38,0.00,,---,0.00,VWS V14.00,2013-01-27 14:15:00,
2013-01-27 09:16:00,17.0,-4.2,30.33,NNW,336,11.0,16.0,38,0.00,,---,0.00,VWS V14.00,2013-01-27 14:16:00,
2013-01-27 09:18:00,17.2,-4.0,30.33,NNW,340,4.0,16.0,38,0.00,,---,0.00,VWS V14.00,2013-01-27 14:18:00,
2013-01-27 09:21:00,17.2,-4.0,30.33,North,356,4.0,16.0,38,0.00,,---,0.00,VWS V14.00,2013-01-27 14:21:00,
2013-01-27 09:23:00,17.2,-4.0,30.33,NNW,330,7.0,16.0,38,0.00,,---,0.00,VWS V14.00,2013-01-27 14:23:00,
2013-01-27 09:24:00,17.3,-3.9,30.33,NW,323,4.0,16.0,38,0.00,,---,0.00,VWS V14.00,2013-01-27 14:24:00,
2013-01-27 09:26:00,17.5,-3.8,30.33,North,352,7.0,16.0,38,0.00,,---,0.00,VWS V14.00,2013-01-27 14:26:00,
2013-01-27 09:28:00,17.7,-4.1,30.33,NW,317,7.0,16.0,37,0.00,,---,0.00,VWS V14.00,2013-01-27 14:28:00,
2013-01-27 09:29:00,17.7,-4.1,30.33,NNW,343,5.0,16.0,37,0.00,,---,0.00,VWS V14.00,2013-01-27 14:29:00,
2013-01-27 09:30:00,17.7,-4.1,30.33,NNW,328,1.0,16.0,37,0.00,,---,0.00,VWS V14.00,2013-01-27 14:30:00,
2013-01-27 09:31:00,17.8,-4.6,30.33,NW,322,1.0,13.0,36,0.00,,---,0.00,VWS V14.00,2013-01-27 14:31:00,
2013-01-27 09:33:00,17.8,-4.1,30.33,NNW,334,2.0,13.0,37,0.00,,---,0.00,VWS V14.00,2013-01-27 14:33:00,
2013-01-27 09:34:00,17.8,-4.1,30.33,NW,321,3.0,13.0,37,0.00,,---,0.00,VWS V14.00,2013-01-27 14:34:00,
2013-01-27 09:36:00,18.1,-3.8,30.33,NNW,346,4.0,13.0,37,0.00,,---,0.00,VWS V14.00,2013-01-27 14:36:00,
2013-01-27 09:38:00,18.1,-4.9,30.33,NNW,330,9.0,14.0,35,0.00,,---,0.00,VWS V14.00,2013-01-27 14:38:00,
2013-01-27 09:39:00,18.1,-4.3,30.33,North,354,5.0,14.0,36,0.00,,---,0.00,VWS V14.00,2013-01-27 14:39:00,
2013-01-27 09:41:00,18.3,-4.8,30.33,NNW,334,13.0,16.0,35,0.00,,---,0.00,VWS V14.00,2013-01-27 14:41:00,
2013-01-27 09:43:00,18.3,-4.8,30.34,NNW,335,3.0,16.0,35,0.00,,---,0.00,VWS V14.00,2013-01-27 14:43:00,
2013-01-27 09:44:00,18.3,-4.2,30.34,NNW,339,4.0,16.0,36,0.00,,---,0.00,VWS V14.00,2013-01-27 14:44:00,
2013-01-27 09:45:00,20.8,-5.1,30.34,NW,322,9.0,13.0,31,0.00,,---,0.00,VWS V14.00,2013-01-27 14:45:00,
2013-01-27 09:46:00,18.4,-4.1,30.34,North,1,0.0,8.0,36,0.00,,---,0.00,VWS V14.00,2013-01-27 14:46:00,
2013-01-27 09:47:00,18.4,-4.1,30.34,North,1,1.0,8.0,36,0.00,,---,0.00,VWS V14.00,2013-01-27 14:47:00,
2013-01-27 09:49:00,18.6,-3.9,30.34,NNW,328,6.0,12.0,36,0.00,,---,0.00,VWS V14.00,2013-01-27 14:49:00,
2013-01-27 09:51:00,18.8,-4.3,30.34,NNW,332,0.0,12.0,35,0.00,,---,0.00,VWS V14.00,2013-01-27 14:51:00,
2013-01-27 09:52:00,18.8,-4.3,30.34,NNW,343,5.0,12.0,35,0.00,,---,0.00,VWS V14.00,2013-01-27 14:52:00,
2013-01-27 09:54:00,18.8,-4.9,30.34,NNW,336,6.0,15.0,34,0.00,,---,0.00,VWS V14.00,2013-01-27 14:54:00,
2013-01-27 09:56:00,18.9,-4.2,30.34,North,0,9.0,15.0,35,0.00,,---,0.00,VWS V14.00,2013-01-27 14:56:00,
2013-01-27 09:57:00,18.9,-4.2,30.34,NNW,333,8.0,15.0,35,0.00,,---,0.00,VWS V14.00,2013-01-27 14:57:00,
2013-01-27 09:59:00,18.9,-4.2,30.34,NNW,331,3.0,15.0,35,0.00,,---,0.00,VWS V14.00,2013-01-27 14:59:00,
2013-01-27 10:00:00,18.9,-4.2,30.34,NNW,330,7.0,15.0,35,0.00,,---,0.00,VWS V14.00,2013-01-27 15:00:00,
2013-01-27 10:02:00,19.1,-4.7,30.34,NW,323,4.0,10.0,34,0.00,,---,0.00,VWS V14.00,2013-01-27 15:02:00,
2013-01-27 10:04:00,19.2,-4.0,30.34,NNE,15,1.0,10.0,35,0.00,,---,0.00,VWS V14.00,2013-01-27 15:04:00,
2013-01-27 10:06:00,19.2,-4.6,30.34,North,356,5.0,15.0,34,0.00,,---,0.00,VWS V14.00,2013-01-27 15:06:00,
2013-01-27 10:07:00,19.2,-4.6,30.34,NW,323,9.0,15.0,34,0.00,,---,0.00,VWS V14.00,2013-01-27 15:07:00,
2013-01-27 10:09:00,19.4,-4.4,30.34,North,0,3.0,15.0,34,0.00,,---,0.00,VWS V14.00,2013-01-27 15:09:00,
2013-01-27 10:12:00,19.5,-4.3,30.34,NNW,338,4.0,15.0,34,0.00,,---,0.00,VWS V14.00,2013-01-27 15:12:00,
2013-01-27 10:14:00,19.7,-4.7,30.34,NE,42,3.0,15.0,33,0.00,,---,0.00,VWS V14.00,2013-01-27 15:14:00,
2013-01-27 10:15:00,19.7,-4.7,30.34,East,89,3.0,15.0,33,0.00,,---,0.00,VWS V14.00,2013-01-27 15:15:00,
2013-01-27 10:17:00,19.7,-4.7,30.34,North,356,4.0,12.0,33,0.00,,---,0.00,VWS V14.00,2013-01-27 15:17:00,
2013-01-27 10:19:00,19.7,-4.7,30.34,NW,322,6.0,12.0,33,0.00,,---,0.00,VWS V14.00,2013-01-27 15:19:00,
2013-01-27 10:22:00,19.9,-5.2,30.34,NNW,335,7.0,12.0,32,0.00,,---,0.00,VWS V14.00,2013-01-27 15:22:00,
2013-01-27 10:24:00,20.0,-5.1,30.34,NNW,335,6.0,12.0,32,0.00,,---,0.00,VWS V14.00,2013-01-27 15:24:00,
2013-01-27 10:27:00,20.2,-4.9,30.34,North,11,2.0,12.0,32,0.00,,---,0.00,VWS V14.00,2013-01-27 15:27:00,
2013-01-27 10:29:00,20.3,-4.2,30.34,NNE,15,0.0,12.0,33,0.00,,---,0.00,VWS V14.00,2013-01-27 15:29:00,
2013-01-27 10:30:00,20.3,-4.2,30.34,NW,314,2.0,12.0,33,0.00,,---,0.00,VWS V14.00,2013-01-27 15:30:00,
2013-01-27 10:32:00,20.6,-5.2,30.34,NNW,338,3.0,11.0,31,0.00,,---,0.00,VWS V14.00,2013-01-27 15:32:00,
2013-01-27 10:34:00,20.6,-5.2,30.34,NNW,333,11.0,13.0,31,0.00,,---,0.00,VWS V14.00,2013-01-27 15:34:00,
2013-01-27 10:37:00,20.6,-5.2,30.34,NNW,330,10.0,13.0,31,0.00,,---,0.00,VWS V14.00,2013-01-27 15:37:00,
2013-01-27 10:39:00,20.6,-5.2,30.34,NNW,338,6.0,13.0,31,0.00,,---,0.00,VWS V14.00,2013-01-27 15:39:00,
2013-01-27 10:42:00,20.6,-5.2,30.34,NW,319,9.0,13.0,31,0.00,,---,0.00,VWS V14.00,2013-01-27 15:42:00,
2013-01-27 10:44:00,20.8,-5.1,30.34,North,349,6.0,13.0,31,0.00,,---,0.00,VWS V14.00,2013-01-27 15:44:00,
2013-01-27 10:45:00,20.8,-5.1,30.34,East,91,2.0,9.0,31,0.00,,---,0.00,VWS V14.00,2013-01-27 15:45:00,
2013-01-27 10:47:00,21.0,-4.9,30.34,NNW,338,3.0,15.0,31,0.00,,---,0.00,VWS V14.00,2013-01-27 15:47:00,
2013-01-27 10:49:00,21.1,-4.8,30.34,North,349,7.0,15.0,31,0.00,,---,0.00,VWS V14.00,2013-01-27 15:49:00,
2013-01-27 10:50:00,21.1,-4.8,30.34,NNW,342,2.0,15.0,31,0.00,,---,0.00,VWS V14.00,2013-01-27 15:50:00,
2013-01-27 10:52:00,21.3,-4.6,30.34,North,355,5.0,15.0,31,0.00,,---,0.00,VWS V14.00,2013-01-27 15:52:00,
2013-01-27 10:54:00,21.3,-4.6,30.34,NNW,340,4.0,15.0,31,0.00,,---,0.00,VWS V14.00,2013-01-27 15:54:00,
2013-01-27 10:55:00,21.3,-4.6,30.34,NNW,347,10.0,15.0,31,0.00,,---,0.00,VWS V14.00,2013-01-27 15:55:00,
2013-01-27 10:57:00,21.3,-5.3,30.34,North,0,3.0,15.0,30,0.00,,---,0.00,VWS V14.00,2013-01-27 15:57:00,
2013-01-27 10:59:00,21.4,-4.5,30.34,NNW,336,4.0,5.0,31,0.00,,---,0.00,VWS V14.00,2013-01-27 15:59:00,
2013-01-27 11:00:00,21.4,-4.5,30.34,North,352,4.0,5.0,31,0.00,,---,0.00,VWS V14.00,2013-01-27 16:00:00,
2013-01-27 11:02:00,21.8,-4.9,30.34,NW,316,6.0,13.0,30,0.00,,---,0.00,VWS V14.00,2013-01-27 16:02:00,
2013-01-27 11:04:00,21.9,-4.1,30.34,NNW,330,12.0,13.0,31,0.00,,---,0.00,VWS V14.00,2013-01-27 16:04:00,
2013-01-27 11:05:00,21.9,-4.8,30.34,NNW,330,2.0,13.0,30,0.00,,---,0.00,VWS V14.00,2013-01-27 16:05:00,
2013-01-27 11:07:00,22.2,-5.2,30.34,North,356,9.0,13.0,29,0.00,,---,0.00,VWS V14.00,2013-01-27 16:07:00,
2013-01-27 11:08:00,22.2,-5.2,30.34,NW,326,11.0,13.0,29,0.00,,---,0.00,VWS V14.00,2013-01-27 16:08:00,
2013-01-27 11:09:00,22.1,-5.3,30.34,NNW,338,2.0,13.0,29,0.00,,---,0.00,VWS V14.00,2013-01-27 16:09:00,
2013-01-27 11:10:00,22.1,-5.3,30.34,NNW,330,10.0,13.0,29,0.00,,---,0.00,VWS V14.00,2013-01-27 16:10:00,
2013-01-27 11:12:00,22.2,-5.2,30.34,NW,305,1.0,14.0,29,0.00,,---,0.00,VWS V14.00,2013-01-27 16:12:00,
2013-01-27 11:13:00,22.2,-5.2,30.34,NNW,329,4.0,14.0,29,0.00,,---,0.00,VWS V14.00,2013-01-27 16:13:00,
2013-01-27 11:14:00,22.4,-5.0,30.34,North,0,1.0,4.0,29,0.00,,---,0.00,VWS V14.00,2013-01-27 16:14:00,
2013-01-27 11:15:00,22.4,-5.0,30.34,NNW,340,3.0,4.0,29,0.00,,---,0.00,VWS V14.00,2013-01-27 16:15:00,
2013-01-27 11:17:00,22.7,-4.8,30.34,NE,37,1.0,5.0,29,0.00,,---,0.00,VWS V14.00,2013-01-27 16:17:00,
2013-01-27 11:18:00,22.7,-4.8,30.34,NE,36,2.0,5.0,29,0.00,,---,0.00,VWS V14.00,2013-01-27 16:18:00,
2013-01-27 11:20:00,22.9,-4.6,30.34,North,6,4.0,7.0,29,0.00,,---,0.00,VWS V14.00,2013-01-27 16:20:00,
2013-01-27 11:22:00,23.0,-5.2,30.34,NNW,331,6.0,12.0,28,0.00,,---,0.00,VWS V14.00,2013-01-27 16:22:00,
2013-01-27 11:23:00,23.0,-5.2,30.34,NNW,343,1.0,12.0,28,0.00,,---,0.00,VWS V14.00,2013-01-27 16:23:00,
2013-01-27 11:25:00,23.0,-5.2,30.34,NNW,332,10.0,13.0,28,0.00,,---,0.00,VWS V14.00,2013-01-27 16:25:00,
2013-01-27 11:28:00,22.9,-5.3,30.34,NNW,328,3.0,13.0,28,0.00,,---,0.00,VWS V14.00,2013-01-27 16:28:00,
2013-01-27 11:30:00,22.9,-5.3,30.34,NNW,345,2.0,6.0,28,0.00,,---,0.00,VWS V14.00,2013-01-27 16:30:00,
2013-01-27 11:33:00,23.2,-5.1,30.34,NW,314,6.0,11.0,28,0.00,,---,0.00,VWS V14.00,2013-01-27 16:33:00,
2013-01-27 11:35:00,23.2,-5.1,30.34,NNW,345,10.0,14.0,28,0.00,,---,0.00,VWS V14.00,2013-01-27 16:35:00,
2013-01-27 11:36:00,23.2,-5.1,30.34,NW,309,5.0,14.0,28,0.00,,---,0.00,VWS V14.00,2013-01-27 16:36:00,
2013-01-27 11:38:00,23.2,-5.1,30.34,North,354,3.0,14.0,28,0.00,,---,0.00,VWS V14.00,2013-01-27 16:38:00,
2013-01-27 11:40:00,23.3,-5.0,30.34,NW,323,11.0,14.0,28,0.00,,---,0.00,VWS V14.00,2013-01-27 16:40:00,
2013-01-27 11:41:00,23.3,-5.0,30.34,NNW,338,4.0,14.0,28,0.00,,---,0.00,VWS V14.00,2013-01-27 16:41:00,
2013-01-27 11:43:00,23.5,-4.8,30.34,NNE,17,2.0,14.0,28,0.00,,---,0.00,VWS V14.00,2013-01-27 16:43:00,
2013-01-27 11:45:00,23.6,-5.5,30.34,NNW,345,3.0,6.0,27,0.00,,---,0.00,VWS V14.00,2013-01-27 16:45:00,
2013-01-27 11:46:00,23.6,-5.5,30.34,NNW,342,7.0,7.0,27,0.00,,---,0.00,VWS V14.00,2013-01-27 16:46:00,
2013-01-27 11:48:00,23.6,-5.5,30.34,NNW,346,8.0,11.0,27,0.00,,---,0.00,VWS V14.00,2013-01-27 16:48:00,
2013-01-27 11:50:00,23.6,-5.5,30.34,North,351,2.0,11.0,27,0.00,,---,0.00,VWS V14.00,2013-01-27 16:50:00,
2013-01-27 11:51:00,23.8,-4.5,30.34,NNW,348,4.0,14.0,28,0.00,,---,0.00,VWS V14.00,2013-01-27 16:51:00,
2013-01-27 11:53:00,23.8,-5.3,30.34,NW,326,8.0,15.0,27,0.00,,---,0.00,VWS V14.00,2013-01-27 16:53:00,
2013-01-27 11:55:00,23.9,-4.4,30.34,North,356,3.0,15.0,28,0.00,,---,0.00,VWS V14.00,2013-01-27 16:55:00,
2013-01-27 11:56:00,23.9,-5.2,30.34,NNW,338,2.0,15.0,27,0.00,,---,0.00,VWS V14.00,2013-01-27 16:56:00,
2013-01-27 11:58:00,24.1,-4.3,30.34,NNW,335,6.0,15.0,28,0.00,,---,0.00,VWS V14.00,2013-01-27 16:58:00,
2013-01-27 12:00:00,24.2,-4.2,30.34,NNW,338,11.0,11.0,28,0.00,,---,0.00,VWS V14.00,2013-01-27 17:00:00,
2013-01-27 12:02:00,24.2,-4.2,30.34,WNW,290,2.0,11.0,28,0.00,,---,0.00,VWS V14.00,2013-01-27 17:02:00,
2013-01-27 12:03:00,24.4,-4.8,30.34,NW,326,7.0,16.0,27,0.00,,---,0.00,VWS V14.00,2013-01-27 17:03:00,
2013-01-27 12:06:00,24.4,-4.0,30.34,NNW,333,1.0,16.0,28,0.00,,---,0.00,VWS V14.00,2013-01-27 17:06:00,
2013-01-27 12:07:00,24.4,-4.8,30.34,NW,326,4.0,16.0,27,0.00,,---,0.00,VWS V14.00,2013-01-27 17:07:00,
2013-01-27 12:08:00,24.4,-4.8,30.34,NNW,347,5.0,16.0,27,0.00,,---,0.00,VWS V14.00,2013-01-27 17:08:00,
2013-01-27 12:11:00,24.2,-4.9,30.34,NNW,334,10.0,16.0,27,0.00,,---,0.00,VWS V14.00,2013-01-27 17:11:00,
2013-01-27 12:12:00,24.2,-4.9,30.34,NNW,343,10.0,16.0,27,0.00,,---,0.00,VWS V14.00,2013-01-27 17:12:00,
2013-01-27 12:13:00,24.2,-4.9,30.33,North,1,4.0,16.0,27,0.00,,---,0.00,VWS V14.00,2013-01-27 17:13:00,
2013-01-27 12:14:00,24.2,-4.9,30.33,NE,43,3.0,16.0,27,0.00,,---,0.00,VWS V14.00,2013-01-27 17:14:00,
2013-01-27 12:15:00,24.2,-4.9,30.33,North,0,2.0,16.0,27,0.00,,---,0.00,VWS V14.00,2013-01-27 17:15:00,
2013-01-27 12:16:00,24.4,-4.0,30.33,NNW,348,3.0,6.0,28,0.00,,---,0.00,VWS V14.00,2013-01-27 17:16:00,
2013-01-27 12:17:00,24.4,-4.8,30.33,NW,326,4.0,15.0,27,0.00,,---,0.00,VWS V14.00,2013-01-27 17:17:00,
2013-01-27 12:18:00,24.5,-4.7,30.33,NW,304,4.0,15.0,27,0.00,,---,0.00,VWS V14.00,2013-01-27 17:18:00,
2013-01-27 12:19:00,24.5,-4.7,30.33,NNW,342,9.0,15.0,27,0.00,,---,0.00,VWS V14.00,2013-01-27 17:19:00,
2013-01-27 12:21:00,24.7,-4.5,30.33,North,9,4.0,15.0,27,0.00,,---,0.00,VWS V14.00,2013-01-27 17:21:00,
2013-01-27 12:22:00,24.8,-4.4,30.33,North,350,4.0,15.0,27,0.00,,---,0.00,VWS V14.00,2013-01-27 17:22:00,
2013-01-27 12:23:00,24.8,-4.4,30.33,NNW,330,3.0,15.0,27,0.00,,---,0.00,VWS V14.00,2013-01-27 17:23:00,
2013-01-27 12:24:00,24.8,-4.4,30.33,NNW,330,3.0,15.0,27,0.00,,---,0.00,VWS V14.00,2013-01-27 17:24:00,
2013-01-27 12:26:00,25.0,-4.2,30.33,North,354,8.0,15.0,27,0.00,,---,0.00,VWS V14.00,2013-01-27 17:26:00,
2013-01-27 12:27:00,25.0,-4.2,30.33,North,359,4.0,15.0,27,0.00,,---,0.00,VWS V14.00,2013-01-27 17:27:00,
2013-01-27 12:29:00,25.1,-4.2,30.33,NNW,343,2.0,15.0,27,0.00,,---,0.00,VWS V14.00,2013-01-27 17:29:00,
2013-01-27 12:30:00,25.1,-4.2,30.33,NNW,344,0.0,15.0,27,0.00,,---,0.00,VWS V14.00,2013-01-27 17:30:00,
2013-01-27 12:31:00,25.3,-4.0,30.33,West,267,3.0,7.0,27,0.00,,---,0.00,VWS V14.00,2013-01-27 17:31:00,
2013-01-27 12:32:00,25.4,-3.9,30.33,NNW,340,6.0,7.0,27,0.00,,---,0.00,VWS V14.00,2013-01-27 17:32:00,
2013-01-27 12:34:00,25.4,-4.7,30.33,North,359,6.0,9.0,26,0.00,,---,0.00,VWS V14.00,2013-01-27 17:34:00,
2013-01-27 12:36:00,25.6,-3.7,30.33,NNW,342,2.0,9.0,27,0.00,,---,0.00,VWS V14.00,2013-01-27 17:36:00,
2013-01-27 12:37:00,25.6,-3.7,30.33,NNW,341,5.0,9.0,27,0.00,,---,0.00,VWS V14.00,2013-01-27 17:37:00,
2013-01-27 12:39:00,25.7,-4.4,30.33,NNW,328,12.0,12.0,26,0.00,,---,0.00,VWS V14.00,2013-01-27 17:39:00,
2013-01-27 12:41:00,25.7,-4.4,30.33,NW,308,3.0,14.0,26,0.00,,---,0.00,VWS V14.00,2013-01-27 17:41:00,
2013-01-27 12:42:00,25.7,-4.4,30.33,NNW,341,5.0,14.0,26,0.00,,---,0.00,VWS V14.00,2013-01-27 17:42:00,
2013-01-27 12:44:00,25.6,-4.5,30.33,WNW,295,4.0,14.0,26,0.00,,---,0.00,VWS V14.00,2013-01-27 17:44:00,
2013-01-27 12:45:00,25.6,-4.5,30.33,NNW,332,3.0,14.0,26,0.00,,---,0.00,VWS V14.00,2013-01-27 17:45:00,
2013-01-27 12:46:00,25.6,-3.7,30.33,NNE,15,0.0,10.0,27,0.00,,---,0.00,VWS V14.00,2013-01-27 17:46:00,
2013-01-27 12:47:00,25.6,-3.7,30.33,NNW,327,7.0,10.0,27,0.00,,---,0.00,VWS V14.00,2013-01-27 17:47:00,
2013-01-27 12:49:00,25.7,-4.4,30.33,NNW,339,4.0,10.0,26,0.00,,---,0.00,VWS V14.00,2013-01-27 17:49:00,
2013-01-27 12:51:00,26.0,-3.4,30.33,NNW,341,0.0,10.0,27,0.00,,---,0.00,VWS V14.00,2013-01-27 17:51:00,
2013-01-27 12:52:00,26.1,-3.3,30.33,NNW,340,0.0,10.0,27,0.00,,---,0.00,VWS V14.00,2013-01-27 17:52:00,
2013-01-27 12:54:00,26.3,-3.1,30.33,NNE,13,2.0,10.0,27,0.00,,---,0.00,VWS V14.00,2013-01-27 17:54:00,
2013-01-27 12:57:00,26.6,-3.7,30.33,NNW,327,0.0,13.0,26,0.00,,---,0.00,VWS V14.00,2013-01-27 17:57:00,
2013-01-27 12:59:00,26.6,-3.7,30.33,NNW,335,7.0,10.0,26,0.00,,---,0.00,VWS V14.00,2013-01-27 17:59:00,
2013-01-27 13:00:00,26.6,-3.7,30.33,NNW,335,9.0,13.0,26,0.00,,---,0.00,VWS V14.00,2013-01-27 18:00:00,
2013-01-27 13:02:00,26.4,-4.6,30.33,NW,306,13.0,13.0,25,0.00,,---,0.00,VWS V14.00,2013-01-27 18:02:00,
2013-01-27 13:04:00,26.1,-4.9,30.33,NNW,338,5.0,16.0,25,0.00,,---,0.00,VWS V14.00,2013-01-27 18:04:00,
2013-01-27 13:07:00,26.1,-4.1,30.33,NNE,22,2.0,16.0,26,0.00,,---,0.00,VWS V14.00,2013-01-27 18:07:00,
2013-01-27 13:08:00,26.1,-4.1,30.33,NNW,346,2.0,16.0,26,0.00,,---,0.00,VWS V14.00,2013-01-27 18:08:00,
2013-01-27 13:09:00,26.3,-3.9,30.33,North,354,0.0,16.0,26,0.00,,---,0.00,VWS V14.00,2013-01-27 18:09:00,
2013-01-27 13:12:00,26.6,-4.5,30.33,North,354,4.0,16.0,25,0.00,,---,0.00,VWS V14.00,2013-01-27 18:12:00,
2013-01-27 13:13:00,26.7,-4.4,30.33,NNW,344,3.0,16.0,25,0.00,,---,0.00,VWS V14.00,2013-01-27 18:13:00,
2013-01-27 13:15:00,26.9,-3.4,30.33,NW,314,9.0,11.0,26,0.00,,---,0.00,VWS V14.00,2013-01-27 18:15:00,
2013-01-27 13:17:00,26.9,-4.2,30.33,NNW,328,4.0,11.0,25,0.00,,---,0.00,VWS V14.00,2013-01-27 18:17:00,
2013-01-27 13:18:00,27.0,-4.1,30.33,NNE,17,4.0,11.0,25,0.00,,---,0.00,VWS V14.00,2013-01-27 18:18:00,
2013-01-27 13:20:00,27.0,-4.1,30.33,NNW,345,1.0,11.0,25,0.00,,---,0.00,VWS V14.00,2013-01-27 18:20:00,
2013-01-27 13:22:00,27.3,-3.9,30.33,WSW,253,0.0,11.0,25,0.00,,---,0.00,VWS V14.00,2013-01-27 18:22:00,
2013-01-27 13:23:00,27.5,-3.7,30.33,North,351,2.0,11.0,25,0.00,,---,0.00,VWS V14.00,2013-01-27 18:23:00,
2013-01-27 13:25:00,27.6,-4.5,30.33,North,7,3.0,11.0,24,0.00,,---,0.00,VWS V14.00,2013-01-27 18:25:00,
2013-01-27 13:27:00,27.6,-1.2,30.33,NNW,337,7.0,11.0,28,0.00,,---,0.00,VWS V14.00,2013-01-27 18:27:00,
2013-01-27 13:28:00,27.6,-1.2,30.33,North,0,3.0,11.0,28,0.00,,---,0.00,VWS V14.00,2013-01-27 18:28:00,
2013-01-27 13:30:00,27.5,-4.6,30.32,NW,324,4.0,7.0,24,0.00,,---,0.00,VWS V14.00,2013-01-27 18:30:00,
2013-01-27 13:32:00,27.5,-4.6,30.32,North,359,4.0,14.0,24,0.00,,---,0.00,VWS V14.00,2013-01-27 18:32:00,
2013-01-27 13:33:00,27.5,-4.6,30.32,North,1,0.0,14.0,24,0.00,,---,0.00,VWS V14.00,2013-01-27 18:33:00,
2013-01-27 13:35:00,27.5,-4.6,30.32,West,266,2.0,14.0,24,0.00,,---,0.00,VWS V14.00,2013-01-27 18:35:00,
2013-01-27 13:37:00,27.6,-4.5,30.32,NW,322,3.0,14.0,24,0.00,,---,0.00,VWS V14.00,2013-01-27 18:37:00,
2013-01-27 13:38:00,27.6,-4.5,30.32,WNW,289,1.0,14.0,24,0.00,,---,0.00,VWS V14.00,2013-01-27 18:38:00,
2013-01-27 13:40:00,27.8,-5.2,30.32,NNW,327,9.0,14.0,23,0.00,,---,0.00,VWS V14.00,2013-01-27 18:40:00,
2013-01-27 13:42:00,27.6,-5.3,30.32,NNW,338,6.0,15.0,23,0.00,,---,0.00,VWS V14.00,2013-01-27 18:42:00,
2013-01-27 13:43:00,27.6,-5.3,30.32,North,1,3.0,15.0,23,0.00,,---,0.00,VWS V14.00,2013-01-27 18:43:00,
2013-01-27 13:45:00,27.6,-5.3,30.32,North,356,3.0,9.0,23,0.00,,---,0.00,VWS V14.00,2013-01-27 18:45:00,
2013-01-27 13:48:00,27.8,-5.2,30.32,NNW,341,1.0,9.0,23,0.00,,---,0.00,VWS V14.00,2013-01-27 18:48:00,
2013-01-27 13:50:00,27.8,-5.2,30.32,NNW,332,1.0,9.0,23,0.00,,---,0.00,VWS V14.00,2013-01-27 18:50:00,
2013-01-27 13:53:00,28.1,-4.9,30.32,NNW,340,4.0,12.0,23,0.00,,---,0.00,VWS V14.00,2013-01-27 18:53:00,
2013-01-27 13:55:00,28.1,-4.9,30.32,NW,314,6.0,12.0,23,0.00,,---,0.00,VWS V14.00,2013-01-27 18:55:00,
2013-01-27 13:58:00,28.1,-4.9,30.32,WNW,297,0.0,12.0,23,0.00,,---,0.00,VWS V14.00,2013-01-27 18:58:00,
2013-01-27 13:59:00,28.1,-4.0,30.32,WNW,298,2.0,12.0,24,0.00,,---,0.00,VWS V14.00,2013-01-27 18:59:00,
2013-01-27 14:00:00,28.1,-4.0,30.32,North,1,4.0,12.0,24,0.00,,---,0.00,VWS V14.00,2013-01-27 19:00:00,
2013-01-27 14:01:00,28.2,-4.8,30.32,North,353,2.0,4.0,23,0.00,,---,0.00,VWS V14.00,2013-01-27 19:01:00,
2013-01-27 14:03:00,28.4,-4.7,30.32,North,349,11.0,13.0,23,0.00,,---,0.00,VWS V14.00,2013-01-27 19:03:00,
2013-01-27 14:04:00,28.5,-4.6,30.32,NNW,342,6.0,13.0,23,0.00,,---,0.00,VWS V14.00,2013-01-27 19:04:00,
2013-01-27 14:06:00,28.5,-4.6,30.32,NNW,346,10.0,13.0,23,0.00,,---,0.00,VWS V14.00,2013-01-27 19:06:00,
2013-01-27 14:08:00,28.5,-5.5,30.32,NW,325,6.0,13.0,22,0.00,,---,0.00,VWS V14.00,2013-01-27 19:08:00,
2013-01-27 14:09:00,28.4,-5.6,30.32,North,352,2.0,13.0,22,0.00,,---,0.00,VWS V14.00,2013-01-27 19:09:00,
2013-01-27 14:11:00,28.4,-5.6,30.32,NW,317,5.0,13.0,22,0.00,,---,0.00,VWS V14.00,2013-01-27 19:11:00,
2013-01-27 14:13:00,28.5,-5.5,30.32,North,356,4.0,13.0,22,0.00,,---,0.00,VWS V14.00,2013-01-27 19:13:00,
2013-01-27 14:14:00,28.4,-5.6,30.32,North,359,4.0,13.0,22,0.00,,---,0.00,VWS V14.00,2013-01-27 19:14:00,
2013-01-27 14:15:00,28.4,-5.6,30.32,North,359,3.0,13.0,22,0.00,,---,0.00,VWS V14.00,2013-01-27 19:15:00,
2013-01-27 14:16:00,28.5,-5.5,30.32,North,359,10.0,12.0,22,0.00,,---,0.00,VWS V14.00,2013-01-27 19:16:00,
2013-01-27 14:18:00,28.5,-5.5,30.32,NNW,340,7.0,12.0,22,0.00,,---,0.00,VWS V14.00,2013-01-27 19:18:00,
2013-01-27 14:19:00,28.5,-5.5,30.32,NNW,341,3.0,12.0,22,0.00,,---,0.00,VWS V14.00,2013-01-27 19:19:00,
2013-01-27 14:21:00,28.5,-5.5,30.32,NNW,336,5.0,12.0,22,0.00,,---,0.00,VWS V14.00,2013-01-27 19:21:00,
2013-01-27 14:23:00,28.5,-5.5,30.32,NW,321,6.0,12.0,22,0.00,,---,0.00,VWS V14.00,2013-01-27 19:23:00,
2013-01-27 14:24:00,28.5,-5.5,30.32,NNW,330,3.0,12.0,22,0.00,,---,0.00,VWS V14.00,2013-01-27 19:24:00,
2013-01-27 14:26:00,28.7,-5.3,30.32,NW,326,6.0,14.0,22,0.00,,---,0.00,VWS V14.00,2013-01-27 19:26:00,
2013-01-27 14:28:00,28.7,-5.3,30.32,NNW,346,3.0,14.0,22,0.00,,---,0.00,VWS V14.00,2013-01-27 19:28:00,
2013-01-27 14:29:00,28.7,-5.3,30.32,NNW,345,3.0,14.0,22,0.00,,---,0.00,VWS V14.00,2013-01-27 19:29:00,
2013-01-27 14:30:00,28.7,-5.3,30.32,NNW,345,3.0,14.0,22,0.00,,---,0.00,VWS V14.00,2013-01-27 19:30:00,
2013-01-27 14:31:00,28.8,-5.2,30.32,NW,321,3.0,10.0,22,0.00,,---,0.00,VWS V14.00,2013-01-27 19:31:00,
2013-01-27 14:34:00,28.8,-5.2,30.32,North,359,7.0,11.0,22,0.00,,---,0.00,VWS V14.00,2013-01-27 19:34:00,
2013-01-27 14:36:00,29.0,-5.1,30.32,NW,319,4.0,11.0,22,0.00,,---,0.00,VWS V14.00,2013-01-27 19:36:00,
2013-01-27 14:39:00,29.0,-5.1,30.32,NNW,343,4.0,11.0,22,0.00,,---,0.00,VWS V14.00,2013-01-27 19:39:00,
2013-01-27 14:41:00,29.0,-5.1,30.32,NNW,335,2.0,11.0,22,0.00,,---,0.00,VWS V14.00,2013-01-27 19:41:00,
2013-01-27 14:44:00,29.3,-4.8,30.31,NNW,337,6.0,11.0,22,0.00,,---,0.00,VWS V14.00,2013-01-27 19:44:00,
2013-01-27 14:45:00,29.3,-4.8,30.31,NW,319,4.0,14.0,22,0.00,,---,0.00,VWS V14.00,2013-01-27 19:45:00,
2013-01-27 14:46:00,29.1,-5.0,30.31,NNW,344,2.0,10.0,22,0.00,,---,0.00,VWS V14.00,2013-01-27 19:46:00,
2013-01-27 14:49:00,29.3,-3.9,30.31,North,4,4.0,10.0,23,0.00,,---,0.00,VWS V14.00,2013-01-27 19:49:00,
2013-01-27 14:50:00,29.3,-3.9,30.31,NNW,339,5.0,10.0,23,0.00,,---,0.00,VWS V14.00,2013-01-27 19:50:00,
2013-01-27 14:51:00,29.3,-3.9,30.31,NNW,334,1.0,10.0,23,0.00,,---,0.00,VWS V14.00,2013-01-27 19:51:00,
2013-01-27 14:54:00,29.4,-4.7,30.31,North,349,9.0,15.0,22,0.00,,---,0.00,VWS V14.00,2013-01-27 19:54:00,
2013-01-27 14:55:00,29.4,-4.7,30.31,NNW,338,6.0,15.0,22,0.00,,---,0.00,VWS V14.00,2013-01-27 19:55:00,
2013-01-27 14:56:00,29.4,-4.7,30.31,NNW,330,9.0,15.0,22,0.00,,---,0.00,VWS V14.00,2013-01-27 19:56:00,
2013-01-27 14:59:00,29.3,-4.8,30.32,NNW,340,7.0,15.0,22,0.00,,---,0.00,VWS V14.00,2013-01-27 19:59:00,
2013-01-27 15:00:00,29.1,-4.1,30.32,NW,323,3.0,7.0,23,0.00,,---,0.00,VWS V14.00,2013-01-27 20:00:00,
2013-01-27 15:01:00,29.1,-4.1,30.32,NNW,331,3.0,9.0,23,0.00,,---,0.00,VWS V14.00,2013-01-27 20:01:00,
2013-01-27 15:04:00,29.1,-4.1,30.32,NNW,334,4.0,11.0,23,0.00,,---,0.00,VWS V14.00,2013-01-27 20:04:00,
2013-01-27 15:05:00,29.3,-3.9,30.32,North,352,5.0,11.0,23,0.00,,---,0.00,VWS V14.00,2013-01-27 20:05:00,
2013-01-27 15:06:00,29.3,-3.9,30.32,North,357,6.0,17.0,23,0.00,,---,0.00,VWS V14.00,2013-01-27 20:06:00,
2013-01-27 15:09:00,29.1,-5.0,30.32,North,358,5.0,17.0,22,0.00,,---,0.00,VWS V14.00,2013-01-27 20:09:00,
2013-01-27 15:10:00,29.1,-5.0,30.32,North,353,12.0,17.0,22,0.00,,---,0.00,VWS V14.00,2013-01-27 20:10:00,
2013-01-27 15:11:00,29.0,-5.1,30.32,NNW,334,7.0,17.0,22,0.00,,---,0.00,VWS V14.00,2013-01-27 20:11:00,
2013-01-27 15:14:00,29.0,-5.1,30.32,NNW,345,6.0,7.0,22,0.00,,---,0.00,VWS V14.00,2013-01-27 20:14:00,
2013-01-27 15:15:00,29.0,-4.2,30.32,NNW,342,5.0,7.0,23,0.00,,---,0.00,VWS V14.00,2013-01-27 20:15:00,
2013-01-27 15:16:00,29.0,-4.2,30.32,North,1,5.0,10.0,23,0.00,,---,0.00,VWS V14.00,2013-01-27 20:16:00,
2013-01-27 15:17:00,29.0,-4.2,30.32,North,355,4.0,10.0,23,0.00,,---,0.00,VWS V14.00,2013-01-27 20:17:00,
2013-01-27 15:20:00,29.0,-5.1,30.32,North,359,9.0,14.0,22,0.00,,---,0.00,VWS V14.00,2013-01-27 20:20:00,
2013-01-27 15:22:00,29.0,-5.1,30.32,NNW,334,4.0,14.0,22,0.00,,---,0.00,VWS V14.00,2013-01-27 20:22:00,
2013-01-27 15:25:00,29.0,-5.1,30.32,NNW,335,4.0,14.0,22,0.00,,---,0.00,VWS V14.00,2013-01-27 20:25:00,
2013-01-27 15:27:00,29.1,-5.0,30.32,NW,323,4.0,14.0,22,0.00,,---,0.00,VWS V14.00,2013-01-27 20:27:00,
2013-01-27 15:30:00,29.3,-4.8,30.31,North,355,7.0,10.0,22,0.00,,---,0.00,VWS V14.00,2013-01-27 20:30:00,
2013-01-27 15:32:00,29.3,-4.8,30.31,NNW,347,3.0,10.0,22,0.00,,---,0.00,VWS V14.00,2013-01-27 20:32:00,
2013-01-27 15:35:00,29.3,-4.8,30.31,NNW,331,6.0,12.0,22,0.00,,---,0.00,VWS V14.00,2013-01-27 20:35:00,
2013-01-27 15:36:00,29.3,-4.8,30.31,North,356,5.0,12.0,22,0.00,,---,0.00,VWS V14.00,2013-01-27 20:36:00,
2013-01-27 15:37:00,29.3,-4.8,30.31,NNW,332,10.0,12.0,22,0.00,,---,0.00,VWS V14.00,2013-01-27 20:37:00,
2013-01-27 15:40:00,29.3,-4.8,30.31,North,5,3.0,12.0,22,0.00,,---,0.00,VWS V14.00,2013-01-27 20:40:00,
2013-01-27 15:41:00,29.3,-3.9,30.31,North,349,3.0,12.0,23,0.00,,---,0.00,VWS V14.00,2013-01-27 20:41:00,
2013-01-27 15:42:00,29.3,-4.8,30.31,NW,326,4.0,12.0,22,0.00,,---,0.00,VWS V14.00,2013-01-27 20:42:00,
2013-01-27 15:45:00,29.3,-4.8,30.32,NNW,344,5.0,5.0,22,0.00,,---,0.00,VWS V14.00,2013-01-27 20:45:00,
2013-01-27 15:46:00,29.3,-4.8,30.32,North,359,0.0,5.0,22,0.00,,---,0.00,VWS V14.00,2013-01-27 20:46:00,
2013-01-27 15:47:00,29.3,-3.9,30.32,NW,325,3.0,5.0,23,0.00,,---,0.00,VWS V14.00,2013-01-27 20:47:00,
2013-01-27 15:50:00,29.1,-5.0,30.32,West,265,2.0,7.0,22,0.00,,---,0.00,VWS V14.00,2013-01-27 20:50:00,
2013-01-27 15:51:00,29.1,-5.0,30.32,NNW,338,6.0,12.0,22,0.00,,---,0.00,VWS V14.00,2013-01-27 20:51:00,
2013-01-27 15:52:00,29.1,-5.0,30.32,NW,322,6.0,14.0,22,0.00,,---,0.00,VWS V14.00,2013-01-27 20:52:00,
2013-01-27 15:53:00,29.1,-5.0,30.32,NNW,346,8.0,14.0,22,0.00,,---,0.00,VWS V14.00,2013-01-27 20:53:00,
2013-01-27 15:55:00,29.0,-5.1,30.32,North,359,3.0,14.0,22,0.00,,---,0.00,VWS V14.00,2013-01-27 20:55:00,
2013-01-27 15:56:00,29.0,-4.2,30.32,NNW,343,0.0,14.0,23,0.00,,---,0.00,VWS V14.00,2013-01-27 20:56:00,
2013-01-27 15:57:00,29.0,-4.2,30.32,North,352,4.0,14.0,23,0.00,,---,0.00,VWS V14.00,2013-01-27 20:57:00,
2013-01-27 15:58:00,29.0,-4.2,30.32,North,6,0.0,14.0,23,0.00,,---,0.00,VWS V14.00,2013-01-27 20:58:00,
2013-01-27 16:00:00,29.0,-4.2,30.32,North,359,2.0,5.0,23,0.00,,---,0.00,VWS V14.00,2013-01-27 21:00:00,
2013-01-27 16:01:00,29.0,-4.2,30.32,NNW,337,3.0,5.0,23,0.00,,---,0.00,VWS V14.00,2013-01-27 21:01:00,
2013-01-27 16:02:00,29.0,-4.2,30.32,NNW,337,0.0,5.0,23,0.00,,---,0.00,VWS V14.00,2013-01-27 21:02:00,
2013-01-27 16:03:00,29.0,-4.2,30.32,NNE,24,1.0,5.0,23,0.00,,---,0.00,VWS V14.00,2013-01-27 21:03:00,
2013-01-27 16:05:00,29.0,-4.2,30.32,WNW,301,2.0,6.0,23,0.00,,---,0.00,VWS V14.00,2013-01-27 21:05:00,
2013-01-27 16:06:00,29.0,-5.1,30.32,North,359,3.0,6.0,22,0.00,,---,0.00,VWS V14.00,2013-01-27 21:06:00,
2013-01-27 16:07:00,29.0,-4.2,30.32,North,349,3.0,6.0,23,0.00,,---,0.00,VWS V14.00,2013-01-27 21:07:00,
2013-01-27 16:08:00,29.0,-5.1,30.32,NW,321,0.0,6.0,22,0.00,,---,0.00,VWS V14.00,2013-01-27 21:08:00,
2013-01-27 16:10:00,28.8,-4.3,30.32,WNW,287,0.0,6.0,23,0.00,,---,0.00,VWS V14.00,2013-01-27 21:10:00,
2013-01-27 16:11:00,28.8,-4.3,30.32,WNW,287,0.0,6.0,23,0.00,,---,0.00,VWS V14.00,2013-01-27 21:11:00,
2013-01-27 16:12:00,28.8,-4.3,30.32,NW,324,4.0,6.0,23,0.00,,---,0.00,VWS V14.00,2013-01-27 21:12:00,
2013-01-27 16:13:00,28.8,-4.3,30.32,NW,324,1.0,6.0,23,0.00,,---,0.00,VWS V14.00,2013-01-27 21:13:00,
2013-01-27 16:15:00,28.8,-4.3,30.32,NNW,347,4.0,6.0,23,0.00,,---,0.00,VWS V14.00,2013-01-27 21:15:00,
2013-01-27 16:16:00,28.7,-4.4,30.32,NNW,336,4.0,6.0,23,0.00,,---,0.00,VWS V14.00,2013-01-27 21:16:00,
2013-01-27 16:17:00,28.7,-4.4,30.32,NNW,342,0.0,6.0,23,0.00,,---,0.00,VWS V14.00,2013-01-27 21:17:00,
2013-01-27 16:18:00,28.7,-4.4,30.32,North,352,4.0,6.0,23,0.00,,---,0.00,VWS V14.00,2013-01-27 21:18:00,
2013-01-27 16:21:00,28.5,-4.6,30.32,NNW,333,5.0,8.0,23,0.00,,---,0.00,VWS V14.00,2013-01-27 21:21:00,
2013-01-27 16:22:00,28.5,-4.6,30.32,North,0,6.0,10.0,23,0.00,,---,0.00,VWS V14.00,2013-01-27 21:22:00,
2013-01-27 16:23:00,28.5,-4.6,30.32,NW,319,5.0,10.0,23,0.00,,---,0.00,VWS V14.00,2013-01-27 21:23:00,
2013-01-27 16:26:00,28.5,-4.6,30.32,NNW,347,4.0,10.0,23,0.00,,---,0.00,VWS V14.00,2013-01-27 21:26:00,
2013-01-27 16:27:00,28.5,-4.6,30.32,NNW,338,2.0,10.0,23,0.00,,---,0.00,VWS V14.00,2013-01-27 21:27:00,
2013-01-27 16:28:00,28.4,-4.7,30.32,NNW,330,4.0,10.0,23,0.00,,---,0.00,VWS V14.00,2013-01-27 21:28:00,
2013-01-27 16:30:00,28.4,-4.7,30.33,NW,322,2.0,10.0,23,0.00,,---,0.00,VWS V14.00,2013-01-27 21:30:00,
2013-01-27 16:31:00,28.4,-4.7,30.33,NNW,341,4.0,7.0,23,0.00,,---,0.00,VWS V14.00,2013-01-27 21:31:00,
2013-01-27 16:32:00,28.4,-4.7,30.33,North,357,2.0,9.0,23,0.00,,---,0.00,VWS V14.00,2013-01-27 21:32:00,
2013-01-27 16:33:00,28.4,-4.7,30.33,WNW,303,2.0,9.0,23,0.00,,---,0.00,VWS V14.00,2013-01-27 21:33:00,
2013-01-27 16:36:00,28.2,-4.8,30.33,North,352,1.0,9.0,23,0.00,,---,0.00,VWS V14.00,2013-01-27 21:36:00,
2013-01-27 16:37:00,28.2,-4.8,30.33,NNW,338,2.0,9.0,23,0.00,,---,0.00,VWS V14.00,2013-01-27 21:37:00,
2013-01-27 16:38:00,28.2,-4.8,30.33,NNW,338,0.0,9.0,23,0.00,,---,0.00,VWS V14.00,2013-01-27 21:38:00,
2013-01-27 16:41:00,28.1,-4.9,30.33,NNW,348,5.0,9.0,23,0.00,,---,0.00,VWS V14.00,2013-01-27 21:41:00,
2013-01-27 16:42:00,28.1,-4.9,30.33,North,351,3.0,9.0,23,0.00,,---,0.00,VWS V14.00,2013-01-27 21:42:00,
2013-01-27 16:43:00,28.1,-4.9,30.33,North,351,3.0,9.0,23,0.00,,---,0.00,VWS V14.00,2013-01-27 21:43:00,
2013-01-27 16:45:00,28.1,-4.9,30.34,NNW,341,3.0,9.0,23,0.00,,---,0.00,VWS V14.00,2013-01-27 21:45:00,
2013-01-27 16:46:00,27.9,-5.1,30.34,NNW,339,0.0,5.0,23,0.00,,---,0.00,VWS V14.00,2013-01-27 21:46:00,
2013-01-27 16:47:00,27.9,-5.1,30.34,NNW,339,0.0,5.0,23,0.00,,---,0.00,VWS V14.00,2013-01-27 21:47:00,
2013-01-27 16:48:00,27.9,-5.1,30.34,NNW,334,1.0,5.0,23,0.00,,---,0.00,VWS V14.00,2013-01-27 21:48:00,
2013-01-27 16:51:00,27.8,-5.2,30.34,North,355,0.0,5.0,23,0.00,,---,0.00,VWS V14.00,2013-01-27 21:51:00,
2013-01-27 16:52:00,27.8,-5.2,30.34,NNW,330,0.0,5.0,23,0.00,,---,0.00,VWS V14.00,2013-01-27 21:52:00,
2013-01-27 16:53:00,27.8,-5.2,30.34,WNW,283,0.0,5.0,23,0.00,,---,0.00,VWS V14.00,2013-01-27 21:53:00,
2013-01-27 16:54:00,27.8,-5.2,30.34,North,350,2.0,6.0,23,0.00,,---,0.00,VWS V14.00,2013-01-27 21:54:00,
2013-01-27 16:56:00,27.6,-5.3,30.34,NNW,338,3.0,7.0,23,0.00,,---,0.00,VWS V14.00,2013-01-27 21:56:00,
2013-01-27 16:57:00,27.6,-5.3,30.34,North,359,4.0,7.0,23,0.00,,---,0.00,VWS V14.00,2013-01-27 21:57:00,
2013-01-27 16:58:00,27.6,-6.3,30.34,North,11,1.0,7.0,22,0.00,,---,0.00,VWS V14.00,2013-01-27 21:58:00,
2013-01-27 16:59:00,27.6,-5.3,30.35,North,359,1.0,7.0,23,0.00,,---,0.00,VWS V14.00,2013-01-27 21:59:00,
2013-01-27 17:00:00,27.6,-5.3,30.35,NNW,348,0.0,7.0,23,0.00,,---,0.00,VWS V14.00,2013-01-27 22:00:00,
2013-01-27 17:01:00,27.6,-5.3,30.35,North,355,3.0,5.0,23,0.00,,---,0.00,VWS V14.00,2013-01-27 22:01:00,
2013-01-27 17:02:00,27.5,-5.4,30.35,NW,326,5.0,5.0,23,0.00,,---,0.00,VWS V14.00,2013-01-27 22:02:00,
2013-01-27 17:03:00,27.5,-5.4,30.35,NNW,338,1.0,5.0,23,0.00,,---,0.00,VWS V14.00,2013-01-27 22:03:00,
2013-01-27 17:04:00,27.5,-5.4,30.35,NNW,339,4.0,5.0,23,0.00,,---,0.00,VWS V14.00,2013-01-27 22:04:00,
2013-01-27 17:06:00,27.5,-5.4,30.35,NNW,345,2.0,5.0,23,0.00,,---,0.00,VWS V14.00,2013-01-27 22:06:00,
2013-01-27 17:08:00,27.3,-5.6,30.35,NNW,344,0.0,5.0,23,0.00,,---,0.00,VWS V14.00,2013-01-27 22:08:00,
2013-01-27 17:09:00,27.3,-5.6,30.35,NNW,344,0.0,5.0,23,0.00,,---,0.00,VWS V14.00,2013-01-27 22:09:00,
2013-01-27 17:11:00,27.2,-5.7,30.35,NNW,344,0.0,5.0,23,0.00,,---,0.00,VWS V14.00,2013-01-27 22:11:00,
2013-01-27 17:13:00,27.2,-5.7,30.35,NNW,344,0.0,5.0,23,0.00,,---,0.00,VWS V14.00,2013-01-27 22:13:00,
2013-01-27 17:14:00,27.2,-4.8,30.35,NNW,344,1.0,5.0,24,0.00,,---,0.00,VWS V14.00,2013-01-27 22:14:00,
2013-01-27 17:15:00,27.2,-4.8,30.35,NNW,344,1.0,5.0,24,0.00,,---,0.00,VWS V14.00,2013-01-27 22:15:00,
2013-01-27 17:17:00,27.0,-5.0,30.35,WNW,297,0.0,2.0,24,0.00,,---,0.00,VWS V14.00,2013-01-27 22:17:00,
2013-01-27 17:18:00,27.0,-5.0,30.35,WNW,297,3.0,3.0,24,0.00,,---,0.00,VWS V14.00,2013-01-27 22:18:00,
2013-01-27 17:19:00,26.9,-5.1,30.35,WNW,302,1.0,3.0,24,0.00,,---,0.00,VWS V14.00,2013-01-27 22:19:00,
2013-01-27 17:22:00,26.9,-5.1,30.35,WNW,302,0.0,3.0,24,0.00,,---,0.00,VWS V14.00,2013-01-27 22:22:00,
2013-01-27 17:23:00,26.7,-5.2,30.35,WNW,302,0.0,3.0,24,0.00,,---,0.00,VWS V14.00,2013-01-27 22:23:00,
2013-01-27 17:24:00,26.7,-5.2,30.35,WNW,302,3.0,3.0,24,0.00,,---,0.00,VWS V14.00,2013-01-27 22:24:00,
2013-01-27 17:27:00,26.7,-5.2,30.35,NW,323,0.0,5.0,24,0.00,,---,0.00,VWS V14.00,2013-01-27 22:27:00,
2013-01-27 17:28:00,26.7,-5.2,30.35,NW,323,0.0,5.0,24,0.00,,---,0.00,VWS V14.00,2013-01-27 22:28:00,
2013-01-27 17:29:00,26.7,-5.2,30.36,NW,323,2.0,5.0,24,0.00,,---,0.00,VWS V14.00,2013-01-27 22:29:00,
2013-01-27 17:30:00,26.6,-5.3,30.36,NW,323,0.0,5.0,24,0.00,,---,0.00,VWS V14.00,2013-01-27 22:30:00,
2013-01-27 17:32:00,26.6,-5.3,30.36,NW,323,2.0,4.0,24,0.00,,---,0.00,VWS V14.00,2013-01-27 22:32:00,
2013-01-27 17:33:00,26.6,-5.3,30.36,NW,323,0.0,4.0,24,0.00,,---,0.00,VWS V14.00,2013-01-27 22:33:00,
2013-01-27 17:34:00,26.6,-5.3,30.36,NW,323,2.0,4.0,24,0.00,,---,0.00,VWS V14.00,2013-01-27 22:34:00,
2013-01-27 17:37:00,26.4,-5.5,30.36,NW,323,0.0,4.0,24,0.00,,---,0.00,VWS V14.00,2013-01-27 22:37:00,
2013-01-27 17:38:00,26.4,-5.5,30.36,NW,323,0.0,4.0,24,0.00,,---,0.00,VWS V14.00,2013-01-27 22:38:00,
2013-01-27 17:39:00,26.4,-5.5,30.36,NW,323,0.0,4.0,24,0.00,,---,0.00,VWS V14.00,2013-01-27 22:39:00,
2013-01-27 17:42:00,26.3,-5.6,30.36,NW,323,0.0,4.0,24,0.00,,---,0.00,VWS V14.00,2013-01-27 22:42:00,
2013-01-27 17:43:00,26.3,-4.7,30.36,West,263,0.0,4.0,25,0.00,,---,0.00,VWS V14.00,2013-01-27 22:43:00,
2013-01-27 17:44:00,26.1,-4.9,30.36,West,263,0.0,4.0,25,0.00,,---,0.00,VWS V14.00,2013-01-27 22:44:00,
2013-01-27 17:45:00,26.1,-4.9,30.36,West,263,0.0,4.0,25,0.00,,---,0.00,VWS V14.00,2013-01-27 22:45:00,
2013-01-27 17:47:00,26.0,-5.0,30.36,NNW,342,0.0,5.0,25,0.00,,---,0.00,VWS V14.00,2013-01-27 22:47:00,
2013-01-27 17:48:00,26.0,-5.0,30.36,NNW,342,2.0,5.0,25,0.00,,---,0.00,VWS V14.00,2013-01-27 22:48:00,
2013-01-27 17:49:00,26.0,-5.0,30.36,NNW,328,3.0,5.0,25,0.00,,---,0.00,VWS V14.00,2013-01-27 22:49:00,
2013-01-27 17:52:00,26.0,-5.8,30.36,NNW,335,0.0,5.0,24,0.00,,---,0.00,VWS V14.00,2013-01-27 22:52:00,
2013-01-27 17:54:00,26.0,-5.8,30.36,NW,325,0.0,5.0,24,0.00,,---,0.00,VWS V14.00,2013-01-27 22:54:00,
2013-01-27 17:58:00,26.0,-5.8,30.36,NNW,345,2.0,5.0,24,0.00,,---,0.00,VWS V14.00,2013-01-27 22:58:00,
2013-01-27 17:59:00,26.0,-5.8,30.38,NNW,340,0.0,5.0,24,0.00,,---,0.00,VWS V14.00,2013-01-27 22:59:00,
2013-01-27 18:00:00,26.0,-5.8,30.38,NNW,340,2.0,5.0,24,0.00,,---,0.00,VWS V14.00,2013-01-27 23:00:00,
2013-01-27 18:03:00,25.8,-6.0,30.38,NW,323,2.0,4.0,24,0.00,,---,0.00,VWS V14.00,2013-01-27 23:03:00,
2013-01-27 18:04:00,25.8,-6.0,30.38,NNW,336,6.0,6.0,24,0.00,,---,0.00,VWS V14.00,2013-01-27 23:04:00,
2013-01-27 18:08:00,25.8,-6.0,30.38,NNW,338,2.0,7.0,24,0.00,,---,0.00,VWS V14.00,2013-01-27 23:08:00,
2013-01-27 18:09:00,25.8,-6.0,30.38,NNW,338,2.0,7.0,24,0.00,,---,0.00,VWS V14.00,2013-01-27 23:09:00,
2013-01-27 18:13:00,25.7,-6.1,30.38,North,356,0.0,7.0,24,0.00,,---,0.00,VWS V14.00,2013-01-27 23:13:00,
2013-01-27 18:14:00,25.7,-6.1,30.39,North,355,0.0,7.0,24,0.00,,---,0.00,VWS V14.00,2013-01-27 23:14:00,
2013-01-27 18:15:00,25.7,-6.1,30.39,NNW,348,6.0,7.0,24,0.00,,---,0.00,VWS V14.00,2013-01-27 23:15:00,
2013-01-27 18:18:00,25.6,-6.2,30.39,NW,307,1.0,7.0,24,0.00,,---,0.00,VWS V14.00,2013-01-27 23:18:00,
2013-01-27 18:19:00,25.6,-6.2,30.39,NW,307,1.0,7.0,24,0.00,,---,0.00,VWS V14.00,2013-01-27 23:19:00,
2013-01-27 18:23:00,25.6,-7.1,30.39,NW,307,0.0,7.0,23,0.00,,---,0.00,VWS V14.00,2013-01-27 23:23:00,
2013-01-27 18:24:00,25.6,-7.1,30.39,NW,307,0.0,7.0,23,0.00,,---,0.00,VWS V14.00,2013-01-27 23:24:00,
2013-01-27 18:25:00,25.6,-7.1,30.39,NW,307,0.0,7.0,23,0.00,,---,0.00,VWS V14.00,2013-01-27 23:25:00,
2013-01-27 18:28:00,25.4,-7.2,30.39,NNW,338,1.0,7.0,23,0.00,,---,0.00,VWS V14.00,2013-01-27 23:28:00,
2013-01-27 18:29:00,25.4,-7.2,30.39,NNW,339,0.0,1.0,23,0.00,,---,0.00,VWS V14.00,2013-01-27 23:29:00,
2013-01-27 18:30:00,25.4,-7.2,30.39,NNW,339,0.0,1.0,23,0.00,,---,0.00,VWS V14.00,2013-01-27 23:30:00,
2013-01-27 18:33:00,25.4,-7.2,30.39,NW,318,1.0,4.0,23,0.00,,---,0.00,VWS V14.00,2013-01-27 23:33:00,
2013-01-27 18:34:00,25.3,-7.3,30.39,NNW,328,3.0,6.0,23,0.00,,---,0.00,VWS V14.00,2013-01-27 23:34:00,
2013-01-27 18:35:00,25.3,-7.3,30.39,NNW,328,3.0,6.0,23,0.00,,---,0.00,VWS V14.00,2013-01-27 23:35:00,
2013-01-27 18:39:00,25.3,-6.4,30.39,NNW,345,1.0,6.0,24,0.00,,---,0.00,VWS V14.00,2013-01-27 23:39:00,
2013-01-27 18:40:00,25.3,-6.4,30.39,NNE,12,1.0,6.0,24,0.00,,---,0.00,VWS V14.00,2013-01-27 23:40:00,
2013-01-27 18:44:00,25.1,-7.5,30.39,North,359,0.0,6.0,23,0.00,,---,0.00,VWS V14.00,2013-01-27 23:44:00,
2013-01-27 18:45:00,25.1,-7.5,30.39,North,359,1.0,1.0,23,0.00,,---,0.00,VWS V14.00,2013-01-27 23:45:00,
2013-01-27 18:49:00,25.1,-7.5,30.39,NNW,335,2.0,6.0,23,0.00,,---,0.00,VWS V14.00,2013-01-27 23:49:00,
2013-01-27 18:50:00,25.1,-7.5,30.39,NNW,335,0.0,6.0,23,0.00,,---,0.00,VWS V14.00,2013-01-27 23:50:00,
2013-01-27 18:54:00,25.0,-7.6,30.39,NNW,328,0.0,7.0,23,0.00,,---,0.00,VWS V14.00,2013-01-27 23:54:00,
2013-01-27 18:55:00,25.0,-7.6,30.39,NNW,328,1.0,7.0,23,0.00,,---,0.00,VWS V14.00,2013-01-27 23:55:00,
2013-01-27 19:00:00,24.8,-7.7,30.39,NNW,343,4.0,5.0,23,0.00,,---,0.00,VWS V14.00,2013-01-28 00:00:00,
2013-01-27 19:05:00,24.8,-7.7,30.39,NNW,337,2.0,10.0,23,0.00,,---,0.00,VWS V14.00,2013-01-28 00:05:00,
2013-01-27 19:06:00,24.8,-7.7,30.39,NW,325,0.0,10.0,23,0.00,,---,0.00,VWS V14.00,2013-01-28 00:06:00,
2013-01-27 19:10:00,24.7,-7.8,30.39,NW,304,2.0,10.0,23,0.00,,---,0.00,VWS V14.00,2013-01-28 00:10:00,
2013-01-27 19:11:00,24.7,-7.8,30.39,NNW,341,3.0,10.0,23,0.00,,---,0.00,VWS V14.00,2013-01-28 00:11:00,
2013-01-27 19:15:00,24.5,-8.9,30.40,North,349,3.0,5.0,22,0.00,,---,0.00,VWS V14.00,2013-01-28 00:15:00,
2013-01-27 19:16:00,24.5,-8.9,30.40,NNW,333,4.0,6.0,22,0.00,,---,0.00,VWS V14.00,2013-01-28 00:16:00,
2013-01-27 19:20:00,24.5,-8.9,30.40,WNW,295,0.0,7.0,22,0.00,,---,0.00,VWS V14.00,2013-01-28 00:20:00,
2013-01-27 19:21:00,24.5,-8.0,30.40,WNW,294,0.0,7.0,23,0.00,,---,0.00,VWS V14.00,2013-01-28 00:21:00,
2013-01-27 19:25:00,24.4,-9.0,30.40,NNW,337,0.0,7.0,22,0.00,,---,0.00,VWS V14.00,2013-01-28 00:25:00,
2013-01-27 19:26:00,24.4,-9.0,30.40,North,350,2.0,7.0,22,0.00,,---,0.00,VWS V14.00,2013-01-28 00:26:00,
2013-01-27 19:30:00,24.2,-9.1,30.40,NNW,328,3.0,4.0,22,0.00,,---,0.00,VWS V14.00,2013-01-28 00:30:00,
2013-01-27 19:31:00,24.2,-9.1,30.40,NNW,342,1.0,4.0,22,0.00,,---,0.00,VWS V14.00,2013-01-28 00:31:00,
2013-01-27 19:32:00,24.2,-9.1,30.40,NNW,342,2.0,4.0,22,0.00,,---,0.00,VWS V14.00,2013-01-28 00:32:00,
2013-01-27 19:35:00,24.1,-8.3,30.40,North,1,0.0,7.0,23,0.00,,---,0.00,VWS V14.00,2013-01-28 00:35:00,
2013-01-27 19:36:00,24.1,-8.3,30.40,NNW,336,1.0,7.0,23,0.00,,---,0.00,VWS V14.00,2013-01-28 00:36:00,
2013-01-27 19:37:00,24.1,-8.3,30.40,NW,326,0.0,7.0,23,0.00,,---,0.00,VWS V14.00,2013-01-28 00:37:00,
2013-01-27 19:40:00,23.9,-9.4,30.40,NNW,342,5.0,7.0,22,0.00,,---,0.00,VWS V14.00,2013-01-28 00:40:00,
2013-01-27 19:41:00,23.9,-9.4,30.40,North,359,4.0,7.0,22,0.00,,---,0.00,VWS V14.00,2013-01-28 00:41:00,
2013-01-27 19:42:00,23.9,-9.4,30.40,NNW,340,7.0,7.0,22,0.00,,---,0.00,VWS V14.00,2013-01-28 00:42:00,
2013-01-27 19:45:00,23.9,-9.4,30.39,NNW,333,1.0,4.0,22,0.00,,---,0.00,VWS V14.00,2013-01-28 00:45:00,
2013-01-27 19:46:00,23.9,-9.4,30.39,NNW,333,0.0,4.0,22,0.00,,---,0.00,VWS V14.00,2013-01-28 00:46:00,
2013-01-27 19:47:00,23.9,-9.4,30.39,NNW,334,2.0,4.0,22,0.00,,---,0.00,VWS V14.00,2013-01-28 00:47:00,
2013-01-27 19:50:00,23.8,-8.6,30.39,NNW,338,1.0,5.0,23,0.00,,---,0.00,VWS V14.00,2013-01-28 00:50:00,
2013-01-27 19:51:00,23.8,-8.6,30.39,NNW,331,4.0,5.0,23,0.00,,---,0.00,VWS V14.00,2013-01-28 00:51:00,
2013-01-27 19:52:00,23.8,-9.5,30.39,North,359,3.0,6.0,22,0.00,,---,0.00,VWS V14.00,2013-01-28 00:52:00,
2013-01-27 19:55:00,23.8,-8.6,30.39,NNW,343,0.0,6.0,23,0.00,,---,0.00,VWS V14.00,2013-01-28 00:55:00,
2013-01-27 19:56:00,23.8,-8.6,30.39,NNW,343,0.0,6.0,23,0.00,,---,0.00,VWS V14.00,2013-01-28 00:56:00,
2013-01-27 19:57:00,23.6,-8.8,30.39,North,351,0.0,6.0,23,0.00,,---,0.00,VWS V14.00,2013-01-28 00:57:00,
2013-01-27 20:00:00,23.6,-8.8,30.39,NNW,338,2.0,3.0,23,0.00,,---,0.00,VWS V14.00,2013-01-28 01:00:00,
2013-01-27 20:01:00,23.5,-8.8,30.39,NW,316,6.0,7.0,23,0.00,,---,0.00,VWS V14.00,2013-01-28 01:01:00,
2013-01-27 20:02:00,23.5,-8.8,30.39,NNW,333,1.0,7.0,23,0.00,,---,0.00,VWS V14.00,2013-01-28 01:02:00,
2013-01-27 20:06:00,23.5,-8.8,30.39,NW,308,0.0,7.0,23,0.00,,---,0.00,VWS V14.00,2013-01-28 01:06:00,
2013-01-27 20:07:00,23.5,-8.8,30.39,North,352,2.0,7.0,23,0.00,,---,0.00,VWS V14.00,2013-01-28 01:07:00,
2013-01-27 20:11:00,23.5,-8.8,30.39,North,354,1.0,7.0,23,0.00,,---,0.00,VWS V14.00,2013-01-28 01:11:00,
2013-01-27 20:12:00,23.5,-8.0,30.39,NW,304,3.0,7.0,24,0.00,,---,0.00,VWS V14.00,2013-01-28 01:12:00,
2013-01-27 20:15:00,23.3,-8.1,30.40,North,356,1.0,7.0,24,0.00,,---,0.00,VWS V14.00,2013-01-28 01:15:00,
2013-01-27 20:16:00,23.3,-9.9,30.40,North,356,5.0,6.0,22,0.00,,---,0.00,VWS V14.00,2013-01-28 01:16:00,
2013-01-27 20:17:00,23.3,-8.1,30.40,NNW,337,5.0,6.0,24,0.00,,---,0.00,VWS V14.00,2013-01-28 01:17:00,
2013-01-27 20:21:00,23.3,-8.1,30.40,NNW,337,3.0,6.0,24,0.00,,---,0.00,VWS V14.00,2013-01-28 01:21:00,
2013-01-27 20:22:00,23.3,-7.3,30.40,NW,316,0.0,6.0,25,0.00,,---,0.00,VWS V14.00,2013-01-28 01:22:00,
2013-01-27 20:26:00,23.2,-7.4,30.40,North,359,1.0,6.0,25,0.00,,---,0.00,VWS V14.00,2013-01-28 01:26:00,
2013-01-27 20:27:00,23.2,-7.4,30.40,NNW,328,2.0,6.0,25,0.00,,---,0.00,VWS V14.00,2013-01-28 01:27:00,
2013-01-27 20:30:00,23.2,-7.4,30.40,North,352,0.0,6.0,25,0.00,,---,0.00,VWS V14.00,2013-01-28 01:30:00,
2013-01-27 20:31:00,23.2,-7.4,30.40,North,353,2.0,3.0,25,0.00,,---,0.00,VWS V14.00,2013-01-28 01:31:00,
2013-01-27 20:32:00,23.0,-6.8,30.40,NNW,338,1.0,5.0,26,0.00,,---,0.00,VWS V14.00,2013-01-28 01:32:00,
2013-01-27 20:36:00,23.0,-6.8,30.40,NNW,338,0.0,5.0,26,0.00,,---,0.00,VWS V14.00,2013-01-28 01:36:00,
2013-01-27 20:37:00,23.0,-6.8,30.40,NNW,338,0.0,5.0,26,0.00,,---,0.00,VWS V14.00,2013-01-28 01:37:00,
2013-01-27 20:41:00,22.9,-6.8,30.40,NNW,338,0.0,5.0,26,0.00,,---,0.00,VWS V14.00,2013-01-28 01:41:00,
2013-01-27 20:42:00,22.9,-6.8,30.40,NNW,338,0.0,5.0,26,0.00,,---,0.00,VWS V14.00,2013-01-28 01:42:00,
2013-01-27 20:43:00,22.9,-6.8,30.40,NNW,338,0.0,5.0,26,0.00,,---,0.00,VWS V14.00,2013-01-28 01:43:00,
2013-01-27 20:45:00,22.9,-6.1,30.39,NNW,338,0.0,5.0,27,0.00,,---,0.00,VWS V14.00,2013-01-28 01:45:00,
2013-01-27 20:46:00,22.7,-6.2,30.39,NNW,338,0.0,2.0,27,0.00,,---,0.00,VWS V14.00,2013-01-28 01:46:00,
2013-01-27 20:47:00,22.7,-6.2,30.39,NNW,338,0.0,2.0,27,0.00,,---,0.00,VWS V14.00,2013-01-28 01:47:00,
2013-01-27 20:48:00,22.7,-6.2,30.39,NNW,338,0.0,2.0,27,0.00,,---,0.00,VWS V14.00,2013-01-28 01:48:00,
2013-01-27 20:51:00,22.5,-6.4,30.39,NNW,338,1.0,2.0,27,0.00,,---,0.00,VWS V14.00,2013-01-28 01:51:00,
2013-01-27 20:52:00,22.5,-6.4,30.39,NNW,338,0.0,2.0,27,0.00,,---,0.00,VWS V14.00,2013-01-28 01:52:00,
2013-01-27 20:53:00,22.5,-6.4,30.39,NNW,338,0.0,2.0,27,0.00,,---,0.00,VWS V14.00,2013-01-28 01:53:00,
2013-01-27 20:56:00,22.5,-6.4,30.39,NNW,338,0.0,3.0,27,0.00,,---,0.00,VWS V14.00,2013-01-28 01:56:00,
2013-01-27 20:57:00,22.5,-6.4,30.39,NNW,338,1.0,3.0,27,0.00,,---,0.00,VWS V14.00,2013-01-28 01:57:00,
2013-01-27 20:58:00,22.5,-6.4,30.39,North,5,2.0,3.0,27,0.00,,---,0.00,VWS V14.00,2013-01-28 01:58:00,
2013-01-27 21:00:00,22.5,-6.4,30.39,North,354,0.0,3.0,27,0.00,,---,0.00,VWS V14.00,2013-01-28 02:00:00,
2013-01-27 21:01:00,22.4,-6.5,30.39,North,354,2.0,2.0,27,0.00,,---,0.00,VWS V14.00,2013-01-28 02:01:00,
2013-01-27 21:02:00,22.4,-6.5,30.39,North,354,1.0,2.0,27,0.00,,---,0.00,VWS V14.00,2013-01-28 02:02:00,
2013-01-27 21:03:00,22.4,-6.5,30.39,NNW,335,0.0,5.0,27,0.00,,---,0.00,VWS V14.00,2013-01-28 02:03:00,
2013-01-27 21:06:00,22.4,-6.5,30.39,NNW,338,0.0,5.0,27,0.00,,---,0.00,VWS V14.00,2013-01-28 02:06:00,
2013-01-27 21:07:00,22.4,-6.5,30.39,NNW,338,0.0,5.0,27,0.00,,---,0.00,VWS V14.00,2013-01-28 02:07:00,
2013-01-27 21:08:00,22.4,-5.8,30.39,NNW,338,1.0,5.0,28,0.00,,---,0.00,VWS V14.00,2013-01-28 02:08:00,
2013-01-27 21:11:00,22.2,-5.9,30.39,NNW,338,0.0,5.0,28,0.00,,---,0.00,VWS V14.00,2013-01-28 02:11:00,
2013-01-27 21:12:00,22.2,-5.9,30.39,NNW,338,1.0,5.0,28,0.00,,---,0.00,VWS V14.00,2013-01-28 02:12:00,
2013-01-27 21:13:00,22.2,-5.9,30.39,NNW,338,0.0,5.0,28,0.00,,---,0.00,VWS V14.00,2013-01-28 02:13:00,
2013-01-27 21:15:00,22.2,-5.9,30.38,North,355,0.0,5.0,28,0.00,,---,0.00,VWS V14.00,2013-01-28 02:15:00,
2013-01-27 21:16:00,22.1,-6.0,30.38,North,354,0.0,2.0,28,0.00,,---,0.00,VWS V14.00,2013-01-28 02:16:00,
2013-01-27 21:17:00,22.1,-6.0,30.38,North,355,0.0,2.0,28,0.00,,---,0.00,VWS V14.00,2013-01-28 02:17:00,
2013-01-27 21:18:00,22.1,-6.0,30.38,North,352,0.0,6.0,28,0.00,,---,0.00,VWS V14.00,2013-01-28 02:18:00,
2013-01-27 21:22:00,22.1,-6.8,30.38,NNW,345,0.0,6.0,27,0.00,,---,0.00,VWS V14.00,2013-01-28 02:22:00,
2013-01-27 21:23:00,22.1,-6.0,30.38,NNW,345,0.0,6.0,28,0.00,,---,0.00,VWS V14.00,2013-01-28 02:23:00,
2013-01-27 21:27:00,22.1,-6.8,30.38,North,359,0.0,6.0,27,0.00,,---,0.00,VWS V14.00,2013-01-28 02:27:00,
2013-01-27 21:28:00,21.9,-6.2,30.38,North,359,0.0,6.0,28,0.00,,---,0.00,VWS V14.00,2013-01-28 02:28:00,
2013-01-27 21:30:00,21.9,-6.2,30.38,North,359,3.0,6.0,28,0.00,,---,0.00,VWS V14.00,2013-01-28 02:30:00,
2013-01-27 21:32:00,21.9,-6.2,30.38,NNW,346,0.0,3.0,28,0.00,,---,0.00,VWS V14.00,2013-01-28 02:32:00,
2013-01-27 21:33:00,21.9,-6.2,30.38,NNW,346,0.0,3.0,28,0.00,,---,0.00,VWS V14.00,2013-01-28 02:33:00,
2013-01-27 21:37:00,21.9,-6.2,30.38,NNW,347,0.0,3.0,28,0.00,,---,0.00,VWS V14.00,2013-01-28 02:37:00,
2013-01-27 21:38:00,21.8,-6.3,30.38,NNW,346,0.0,3.0,28,0.00,,---,0.00,VWS V14.00,2013-01-28 02:38:00,
2013-01-27 21:42:00,21.8,-6.3,30.38,NNW,346,0.0,3.0,28,0.00,,---,0.00,VWS V14.00,2013-01-28 02:42:00,
2013-01-27 21:43:00,21.8,-6.3,30.38,NNW,346,0.0,3.0,28,0.00,,---,0.00,VWS V14.00,2013-01-28 02:43:00,
2013-01-27 21:45:00,21.8,-5.6,30.39,NNW,346,0.0,3.0,29,0.00,,---,0.00,VWS V14.00,2013-01-28 02:45:00,
2013-01-27 21:47:00,21.6,-5.7,30.39,NNW,346,0.0,1.0,29,0.00,,---,0.00,VWS V14.00,2013-01-28 02:47:00,
2013-01-27 21:48:00,21.6,-5.7,30.39,NNW,346,0.0,1.0,29,0.00,,---,0.00,VWS V14.00,2013-01-28 02:48:00,
2013-01-27 21:52:00,21.6,-5.7,30.39,NNW,346,2.0,2.0,29,0.00,,---,0.00,VWS V14.00,2013-01-28 02:52:00,
2013-01-27 21:53:00,21.4,-5.9,30.39,NNW,346,0.0,2.0,29,0.00,,---,0.00,VWS V14.00,2013-01-28 02:53:00,
2013-01-27 21:54:00,21.4,-5.9,30.39,NNW,346,0.0,2.0,29,0.00,,---,0.00,VWS V14.00,2013-01-28 02:54:00,
2013-01-27 21:57:00,21.4,-5.9,30.39,NNW,346,0.0,3.0,29,0.00,,---,0.00,VWS V14.00,2013-01-28 02:57:00,
2013-01-27 21:58:00,21.4,-5.9,30.39,NNW,346,0.0,3.0,29,0.00,,---,0.00,VWS V14.00,2013-01-28 02:58:00,
2013-01-27 21:59:00,21.4,-5.2,30.39,NNW,346,0.0,3.0,30,0.00,,---,0.00,VWS V14.00,2013-01-28 02:59:00,
2013-01-27 22:00:00,21.4,-5.2,30.39,NNW,346,0.0,3.0,30,0.00,,---,0.00,VWS V14.00,2013-01-28 03:00:00,
2013-01-27 22:02:00,21.3,-5.3,30.39,West,262,1.0,4.0,30,0.00,,---,0.00,VWS V14.00,2013-01-28 03:02:00,
2013-01-27 22:03:00,21.3,-5.3,30.39,West,262,1.0,4.0,30,0.00,,---,0.00,VWS V14.00,2013-01-28 03:03:00,
2013-01-27 22:04:00,21.3,-5.3,30.39,West,274,2.0,4.0,30,0.00,,---,0.00,VWS V14.00,2013-01-28 03:04:00,
2013-01-27 22:07:00,21.3,-5.3,30.39,West,275,0.0,4.0,30,0.00,,---,0.00,VWS V14.00,2013-01-28 03:07:00,
2013-01-27 22:08:00,21.3,-5.3,30.39,West,275,2.0,4.0,30,0.00,,---,0.00,VWS V14.00,2013-01-28 03:08:00,
2013-01-27 22:09:00,21.3,-5.3,30.39,West,275,0.0,4.0,30,0.00,,---,0.00,VWS V14.00,2013-01-28 03:09:00,
2013-01-27 22:12:00,21.1,-5.5,30.39,West,266,3.0,4.0,30,0.00,,---,0.00,VWS V14.00,2013-01-28 03:12:00,
2013-01-27 22:13:00,21.1,-5.5,30.40,West,274,2.0,4.0,30,0.00,,---,0.00,VWS V14.00,2013-01-28 03:13:00,
2013-01-27 22:14:00,21.1,-5.5,30.40,West,274,2.0,4.0,30,0.00,,---,0.00,VWS V14.00,2013-01-28 03:14:00,
2013-01-27 22:15:00,21.1,-5.5,30.40,West,278,2.0,4.0,30,0.00,,---,0.00,VWS V14.00,2013-01-28 03:15:00,
2013-01-27 22:18:00,21.1,-5.5,30.40,WNW,282,0.0,3.0,30,0.00,,---,0.00,VWS V14.00,2013-01-28 03:18:00,
2013-01-27 22:19:00,21.1,-5.5,30.40,WNW,282,1.0,3.0,30,0.00,,---,0.00,VWS V14.00,2013-01-28 03:19:00,
2013-01-27 22:23:00,21.1,-4.8,30.40,WNW,282,0.0,3.0,31,0.00,,---,0.00,VWS V14.00,2013-01-28 03:23:00,
2013-01-27 22:24:00,21.1,-4.8,30.40,WNW,282,0.0,3.0,31,0.00,,---,0.00,VWS V14.00,2013-01-28 03:24:00,
2013-01-27 22:28:00,21.1,-4.8,30.40,WNW,282,0.0,3.0,31,0.00,,---,0.00,VWS V14.00,2013-01-28 03:28:00,
2013-01-27 22:29:00,21.1,-4.8,30.40,WNW,282,0.0,3.0,31,0.00,,---,0.00,VWS V14.00,2013-01-28 03:29:00,
2013-01-27 22:30:00,21.0,-4.9,30.40,WNW,282,0.0,3.0,31,0.00,,---,0.00,VWS V14.00,2013-01-28 03:30:00,
2013-01-27 22:33:00,21.0,-4.9,30.40,WNW,282,0.0,1.0,31,0.00,,---,0.00,VWS V14.00,2013-01-28 03:33:00,
2013-01-27 22:34:00,21.0,-4.9,30.40,WNW,282,0.0,1.0,31,0.00,,---,0.00,VWS V14.00,2013-01-28 03:34:00,
2013-01-27 22:38:00,20.8,-4.4,30.40,WNW,282,0.0,1.0,32,0.00,,---,0.00,VWS V14.00,2013-01-28 03:38:00,
2013-01-27 22:39:00,20.8,-4.4,30.40,WNW,282,0.0,1.0,32,0.00,,---,0.00,VWS V14.00,2013-01-28 03:39:00,
2013-01-27 22:43:00,20.5,-4.0,30.40,WNW,282,0.0,1.0,33,0.00,,---,0.00,VWS V14.00,2013-01-28 03:43:00,
2013-01-27 22:44:00,20.5,-4.0,30.40,WNW,282,0.0,1.0,33,0.00,,---,0.00,VWS V14.00,2013-01-28 03:44:00,
2013-01-27 22:45:00,20.5,-4.0,30.40,WNW,282,0.0,1.0,33,0.00,,---,0.00,VWS V14.00,2013-01-28 03:45:00,
2013-01-27 22:48:00,20.2,-3.7,30.40,WNW,282,0.0,1.0,34,0.00,,---,0.00,VWS V14.00,2013-01-28 03:48:00,
2013-01-27 22:49:00,20.2,-3.7,30.40,WNW,282,0.0,1.0,34,0.00,,---,0.00,VWS V14.00,2013-01-28 03:49:00,
2013-01-27 22:53:00,19.9,-3.9,30.40,WNW,282,0.0,1.0,34,0.00,,---,0.00,VWS V14.00,2013-01-28 03:53:00,
2013-01-27 22:54:00,19.9,-3.3,30.40,WNW,282,0.0,1.0,35,0.00,,---,0.00,VWS V14.00,2013-01-28 03:54:00,
2013-01-27 22:55:00,19.7,-3.5,30.40,WNW,282,0.0,1.0,35,0.00,,---,0.00,VWS V14.00,2013-01-28 03:55:00,
2013-01-27 22:58:00,19.5,-3.7,30.40,WNW,282,0.0,1.0,35,0.00,,---,0.00,VWS V14.00,2013-01-28 03:58:00,
2013-01-27 22:59:00,19.5,-3.7,30.41,WNW,282,0.0,1.0,35,0.00,,---,0.00,VWS V14.00,2013-01-28 03:59:00,
2013-01-27 23:00:00,19.4,-3.8,30.41,WNW,282,0.0,0.0,35,0.00,,---,0.00,VWS V14.00,2013-01-28 04:00:00,
2013-01-27 23:03:00,19.2,-4.0,30.41,WNW,282,0.0,1.0,35,0.00,,---,0.00,VWS V14.00,2013-01-28 04:03:00,
2013-01-27 23:04:00,19.2,-4.0,30.41,WNW,282,0.0,1.0,35,0.00,,---,0.00,VWS V14.00,2013-01-28 04:04:00,
2013-01-27 23:05:00,19.2,-4.0,30.41,WNW,282,0.0,1.0,35,0.00,,---,0.00,VWS V14.00,2013-01-28 04:05:00,
2013-01-27 23:08:00,19.1,-4.0,30.41,WNW,282,0.0,1.0,35,0.00,,---,0.00,VWS V14.00,2013-01-28 04:08:00,
2013-01-27 23:09:00,19.1,-4.0,30.41,WNW,282,0.0,1.0,35,0.00,,---,0.00,VWS V14.00,2013-01-28 04:09:00,
2013-01-27 23:10:00,18.9,-4.2,30.41,WNW,282,0.0,1.0,35,0.00,,---,0.00,VWS V14.00,2013-01-28 04:10:00,
2013-01-27 23:13:00,18.9,-4.2,30.41,WNW,282,0.0,1.0,35,0.00,,---,0.00,VWS V14.00,2013-01-28 04:13:00,
2013-01-27 23:14:00,18.9,-4.2,30.41,WNW,282,0.0,0.0,35,0.00,,---,0.00,VWS V14.00,2013-01-28 04:14:00,
2013-01-27 23:15:00,18.9,-4.2,30.41,WNW,282,0.0,0.0,35,0.00,,---,0.00,VWS V14.00,2013-01-28 04:15:00,
2013-01-27 23:18:00,18.8,-4.3,30.41,WNW,282,0.0,0.0,35,0.00,,---,0.00,VWS V14.00,2013-01-28 04:18:00,
2013-01-27 23:19:00,18.8,-4.3,30.41,WNW,282,0.0,0.0,35,0.00,,---,0.00,VWS V14.00,2013-01-28 04:19:00,
2013-01-27 23:20:00,18.6,-4.5,30.41,WNW,282,0.0,0.0,35,0.00,,---,0.00,VWS V14.00,2013-01-28 04:20:00,
2013-01-27 23:23:00,18.6,-4.5,30.41,WNW,282,0.0,2.0,35,0.00,,---,0.00,VWS V14.00,2013-01-28 04:23:00,
2013-01-27 23:24:00,18.6,-4.5,30.41,WNW,282,0.0,2.0,35,0.00,,---,0.00,VWS V14.00,2013-01-28 04:24:00,
2013-01-27 23:25:00,18.6,-4.5,30.41,WNW,282,0.0,2.0,35,0.00,,---,0.00,VWS V14.00,2013-01-28 04:25:00,
2013-01-27 23:29:00,18.6,-4.5,30.41,WNW,282,0.0,2.0,35,0.00,,---,0.00,VWS V14.00,2013-01-28 04:29:00,
2013-01-27 23:30:00,18.6,-4.5,30.41,WNW,282,0.0,0.0,35,0.00,,---,0.00,VWS V14.00,2013-01-28 04:30:00,
2013-01-27 23:34:00,18.4,-4.1,30.41,WNW,282,0.0,0.0,36,0.00,,---,0.00,VWS V14.00,2013-01-28 04:34:00,
2013-01-27 23:35:00,18.4,-4.1,30.41,WNW,282,0.0,0.0,36,0.00,,---,0.00,VWS V14.00,2013-01-28 04:35:00,
2013-01-27 23:39:00,18.4,-4.1,30.41,WNW,282,0.0,0.0,36,0.00,,---,0.00,VWS V14.00,2013-01-28 04:39:00,
2013-01-27 23:40:00,18.4,-4.1,30.41,WNW,282,0.0,0.0,36,0.00,,---,0.00,VWS V14.00,2013-01-28 04:40:00,
2013-01-27 23:41:00,18.4,-4.1,30.41,WNW,282,0.0,0.0,36,0.00,,---,0.00,VWS V14.00,2013-01-28 04:41:00,
2013-01-27 23:44:00,18.4,-3.5,30.41,WNW,282,0.0,0.0,37,0.00,,---,0.00,VWS V14.00,2013-01-28 04:44:00,
2013-01-27 23:45:00,18.4,-3.5,30.41,WNW,282,0.0,0.0,37,0.00,,---,0.00,VWS V14.00,2013-01-28 04:45:00,
2013-01-27 23:46:00,18.4,-3.5,30.41,WNW,282,0.0,0.0,37,0.00,,---,0.00,VWS V14.00,2013-01-28 04:46:00,
2013-01-27 23:49:00,18.4,-3.5,30.41,WNW,282,0.0,0.0,37,0.00,,---,0.00,VWS V14.00,2013-01-28 04:49:00,
2013-01-27 23:50:00,18.3,-3.6,30.41,WNW,282,0.0,0.0,37,0.00,,---,0.00,VWS V14.00,2013-01-28 04:50:00,
2013-01-27 23:52:00,18.3,-3.6,30.41,WNW,282,0.0,1.0,37,0.00,,---,0.00,VWS V14.00,2013-01-28 04:52:00,
2013-01-27 23:54:00,18.3,-3.6,30.41,WNW,282,0.0,1.0,37,0.00,,---,0.00,VWS V14.00,2013-01-28 04:54:00,
2013-01-27 23:55:00,18.3,-3.6,30.41,WNW,282,0.0,1.0,37,0.00,,---,0.00,VWS V14.00,2013-01-28 04:55:00,
2013-01-27 23:56:00,18.3,-3.6,30.41,WNW,282,0.0,1.0,37,0.00,,---,0.00,VWS V14.00,2013-01-28 04:56:00,
2013-01-27 23:57:00,18.3,-3.6,30.41,WNW,282,0.0,1.0,37,0.00,,---,0.00,VWS V14.00,2013-01-28 04:57:00,
2013-01-27 23:59:00,18.3,-3.6,30.39,WNW,282,0.0,1.0,37,0.00,,---,0.00,VWS V14.00,2013-01-28 04:59:00,